Time,TemperatureF,DewpointF,PressureIn,WindDirection,WindDirectionDegrees,WindSpeedMPH,WindSpeedGustMPH,Humidity,HourlyPrecipIn,Conditions,Clouds,dailyrainin,SoftwareType,DateUTC
2013-11-19 00:00:00,73.9,68.4,29.85,ESE,114,0.0,0.0,83,0.00,,SCT020,0.00,VWS V14.01,2013-11-19 05:00:00,
2013-11-19 00:01:00,73.9,68.4,29.85,ESE,114,0.0,0.0,83,0.00,,SCT020,0.00,VWS V14.01,2013-11-19 05:01:00,
2013-11-19 00:03:00,73.9,68.4,29.85,ESE,114,0.0,0.0,83,0.00,,SCT020,0.00,VWS V14.01,2013-11-19 05:03:00,
2013-11-19 00:06:00,73.9,68.4,29.85,ESE,114,0.0,0.0,83,0.00,,SCT020,0.00,VWS V14.01,2013-11-19 05:06:00,
2013-11-19 00:07:00,73.9,68.4,29.85,ESE,114,0.0,0.0,83,0.00,,SCT020,0.00,VWS V14.01,2013-11-19 05:07:00,
2013-11-19 00:09:00,74.0,68.5,29.85,ESE,114,0.0,0.0,83,0.00,,SCT020,0.00,VWS V14.01,2013-11-19 05:09:00,
2013-11-19 00:11:00,74.0,68.5,29.85,ESE,114,0.0,0.0,83,0.00,,SCT020,0.00,VWS V14.01,2013-11-19 05:11:00,
2013-11-19 00:12:00,74.0,68.5,29.85,ESE,114,0.0,0.0,83,0.00,,SCT020,0.00,VWS V14.01,2013-11-19 05:12:00,
2013-11-19 00:15:00,74.0,68.9,29.85,ESE,114,0.0,1.0,84,0.00,,SCT020,0.00,VWS V14.01,2013-11-19 05:15:00,
2013-11-19 00:17:00,74.0,68.5,29.85,ESE,114,0.0,0.0,83,0.00,,SCT020,0.00,VWS V14.01,2013-11-19 05:17:00,
2013-11-19 00:18:00,74.0,68.5,29.85,ESE,114,0.0,1.0,83,0.00,,SCT020,0.00,VWS V14.01,2013-11-19 05:18:00,
2013-11-19 00:19:00,74.0,68.5,29.85,ESE,114,0.0,0.0,83,0.00,,SCT020,0.00,VWS V14.01,2013-11-19 05:19:00,
2013-11-19 00:24:00,74.0,68.5,29.85,ESE,117,0.0,1.0,83,0.00,,SCT020,0.00,VWS V14.01,2013-11-19 05:24:00,
2013-11-19 00:25:00,74.0,68.5,29.85,ESE,117,0.0,1.0,83,0.00,,SCT020,0.00,VWS V14.01,2013-11-19 05:25:00,
2013-11-19 00:26:00,74.0,68.5,29.85,ESE,117,0.0,0.0,83,0.00,,SCT020,0.00,VWS V14.01,2013-11-19 05:26:00,
2013-11-19 00:29:00,74.0,68.5,29.85,ESE,117,1.0,1.0,83,0.00,,SCT020,0.00,VWS V14.01,2013-11-19 05:29:00,
2013-11-19 00:30:00,74.0,68.5,29.84,ESE,117,0.0,1.0,83,0.00,,SCT020,0.00,VWS V14.01,2013-11-19 05:30:00,
2013-11-19 00:33:00,74.2,68.7,29.84,ESE,117,2.0,2.0,83,0.00,,SCT020,0.00,VWS V14.01,2013-11-19 05:33:00,
2013-11-19 00:34:00,74.2,69.1,29.84,SW,227,1.0,2.0,84,0.00,,SCT020,0.00,VWS V14.01,2013-11-19 05:34:00,
2013-11-19 00:35:00,74.2,68.7,29.84,SW,227,1.0,1.0,83,0.00,,SCT020,0.00,VWS V14.01,2013-11-19 05:35:00,
2013-11-19 00:36:00,74.4,68.9,29.84,SW,230,0.0,2.0,83,0.00,,SCT020,0.00,VWS V14.01,2013-11-19 05:36:00,
2013-11-19 00:37:00,74.4,68.9,29.84,SW,234,0.0,2.0,83,0.00,,SCT020,0.00,VWS V14.01,2013-11-19 05:37:00,
2013-11-19 00:38:00,74.4,68.9,29.84,SW,234,0.0,1.0,83,0.00,,SCT020,0.00,VWS V14.01,2013-11-19 05:38:00,
2013-11-19 00:43:00,74.4,68.9,29.84,SW,234,0.0,0.0,83,0.00,,SCT020,0.00,VWS V14.01,2013-11-19 05:43:00,
2013-11-19 00:44:00,74.2,68.7,29.84,SW,234,0.0,0.0,83,0.00,,SCT020,0.00,VWS V14.01,2013-11-19 05:44:00,
2013-11-19 00:45:00,74.2,68.7,29.83,SW,234,0.0,0.0,83,0.00,,SCT020,0.00,VWS V14.01,2013-11-19 05:45:00,
2013-11-19 00:47:00,74.2,68.7,29.83,SW,234,0.0,0.0,83,0.00,,SCT020,0.00,VWS V14.01,2013-11-19 05:47:00,
2013-11-19 00:48:00,74.2,68.7,29.83,SW,234,0.0,0.0,83,0.00,,SCT020,0.00,VWS V14.01,2013-11-19 05:48:00,
2013-11-19 00:51:00,74.2,68.7,29.83,SW,234,0.0,0.0,83,0.00,,SCT020,0.00,VWS V14.01,2013-11-19 05:51:00,
2013-11-19 00:53:00,74.2,68.7,29.83,SW,234,0.0,0.0,83,0.00,,SCT020,0.00,VWS V14.01,2013-11-19 05:53:00,
2013-11-19 00:56:00,74.2,68.7,29.83,SW,236,0.0,1.0,83,0.00,,SCT020,0.00,VWS V14.01,2013-11-19 05:56:00,
2013-11-19 00:57:00,74.2,68.7,29.83,SW,236,0.0,0.0,83,0.00,,SCT020,0.00,VWS V14.01,2013-11-19 05:57:00,
2013-11-19 00:58:00,74.2,68.7,29.83,SW,236,0.0,0.0,83,0.00,,SCT020,0.00,VWS V14.01,2013-11-19 05:58:00,
2013-11-19 01:00:00,74.2,68.7,29.83,SW,236,0.0,0.0,83,0.00,,SCT020,0.00,VWS V14.01,2013-11-19 06:00:00,
2013-11-19 01:02:00,74.2,68.7,29.83,SW,236,0.0,0.0,83,0.00,,SCT020,0.00,VWS V14.01,2013-11-19 06:02:00,
2013-11-19 01:04:00,74.2,68.7,29.83,SW,236,0.0,0.0,83,0.00,,SCT020,0.00,VWS V14.01,2013-11-19 06:04:00,
2013-11-19 01:06:00,74.2,68.7,29.83,SW,236,0.0,1.0,83,0.00,,SCT020,0.00,VWS V14.01,2013-11-19 06:06:00,
2013-11-19 01:07:00,74.2,68.7,29.83,WSW,237,0.0,1.0,83,0.00,,SCT020,0.00,VWS V14.01,2013-11-19 06:07:00,
2013-11-19 01:08:00,74.2,68.7,29.83,WSW,237,0.0,1.0,83,0.00,,SCT020,0.00,VWS V14.01,2013-11-19 06:08:00,
2013-11-19 01:11:00,74.2,68.7,29.83,WSW,239,1.0,2.0,83,0.00,,SCT020,0.00,VWS V14.01,2013-11-19 06:11:00,
2013-11-19 01:12:00,74.2,68.7,29.83,WSW,239,1.0,1.0,83,0.00,,SCT020,0.00,VWS V14.01,2013-11-19 06:12:00,
2013-11-19 01:13:00,74.2,68.7,29.83,WSW,239,2.0,2.0,83,0.00,,SCT020,0.00,VWS V14.01,2013-11-19 06:13:00,
2013-11-19 01:15:00,74.2,68.7,29.83,West,268,1.0,4.0,83,0.00,,SCT020,0.00,VWS V14.01,2013-11-19 06:15:00,
2013-11-19 01:18:00,74.4,68.9,29.83,West,268,2.0,2.0,83,0.00,,SCT020,0.00,VWS V14.01,2013-11-19 06:18:00,
2013-11-19 01:19:00,74.4,68.9,29.83,West,268,0.0,2.0,83,0.00,,SCT020,0.00,VWS V14.01,2013-11-19 06:19:00,
2013-11-19 01:22:00,74.4,68.9,29.83,West,268,1.0,2.0,83,0.00,,SCT020,0.00,VWS V14.01,2013-11-19 06:22:00,
2013-11-19 01:24:00,74.4,68.9,29.83,West,268,0.0,1.0,83,0.00,,SCT020,0.00,VWS V14.01,2013-11-19 06:24:00,
2013-11-19 01:25:00,74.4,68.9,29.83,West,268,0.0,0.0,83,0.00,,SCT020,0.00,VWS V14.01,2013-11-19 06:25:00,
2013-11-19 01:28:00,74.4,68.9,29.83,West,268,0.0,0.0,83,0.00,,SCT020,0.00,VWS V14.01,2013-11-19 06:28:00,
2013-11-19 01:29:00,74.4,68.9,29.83,West,268,0.0,0.0,83,0.00,,SCT020,0.00,VWS V14.01,2013-11-19 06:29:00,
2013-11-19 01:31:00,74.4,68.9,29.83,West,268,0.0,0.0,83,0.00,,SCT020,0.00,VWS V14.01,2013-11-19 06:31:00,
2013-11-19 01:34:00,74.2,68.7,29.83,West,268,0.0,1.0,83,0.00,,SCT020,0.00,VWS V14.01,2013-11-19 06:34:00,
2013-11-19 01:35:00,74.2,68.7,29.83,West,268,1.0,1.0,83,0.00,,SCT020,0.00,VWS V14.01,2013-11-19 06:35:00,
2013-11-19 01:36:00,74.2,68.7,29.83,West,268,0.0,2.0,83,0.00,,SCT020,0.00,VWS V14.01,2013-11-19 06:36:00,
2013-11-19 01:38:00,74.2,68.7,29.83,West,268,0.0,0.0,83,0.00,,SCT020,0.00,VWS V14.01,2013-11-19 06:38:00,
2013-11-19 01:39:00,74.2,68.7,29.83,West,268,1.0,1.0,83,0.00,,SCT020,0.00,VWS V14.01,2013-11-19 06:39:00,
2013-11-19 01:40:00,74.2,69.1,29.83,West,268,0.0,1.0,84,0.00,,SCT020,0.00,VWS V14.01,2013-11-19 06:40:00,
2013-11-19 01:41:00,74.2,69.1,29.83,West,268,0.0,2.0,84,0.00,,SCT020,0.00,VWS V14.01,2013-11-19 06:41:00,
2013-11-19 01:42:00,74.2,69.1,29.83,West,268,0.0,1.0,84,0.00,,SCT020,0.00,VWS V14.01,2013-11-19 06:42:00,
2013-11-19 01:43:00,74.2,69.1,29.83,West,268,0.0,0.0,84,0.00,,SCT020,0.00,VWS V14.01,2013-11-19 06:43:00,
2013-11-19 01:45:00,74.2,69.1,29.82,West,268,0.0,0.0,84,0.00,,SCT020,0.00,VWS V14.01,2013-11-19 06:45:00,
2013-11-19 01:48:00,74.2,69.1,29.82,West,268,0.0,0.0,84,0.00,,SCT020,0.00,VWS V14.01,2013-11-19 06:48:00,
2013-11-19 01:49:00,74.2,69.1,29.82,West,268,0.0,0.0,84,0.00,,SCT020,0.00,VWS V14.01,2013-11-19 06:49:00,
2013-11-19 01:50:00,74.2,69.1,29.82,West,268,0.0,0.0,84,0.00,,SCT020,0.00,VWS V14.01,2013-11-19 06:50:00,
2013-11-19 01:52:00,74.0,68.9,29.82,West,268,0.0,0.0,84,0.00,,SCT020,0.00,VWS V14.01,2013-11-19 06:52:00,
2013-11-19 01:54:00,74.0,68.9,29.82,West,268,0.0,0.0,84,0.00,,SCT020,0.00,VWS V14.01,2013-11-19 06:54:00,
2013-11-19 01:55:00,74.0,68.9,29.82,West,268,0.0,0.0,84,0.00,,SCT020,0.00,VWS V14.01,2013-11-19 06:55:00,
2013-11-19 01:56:00,74.0,68.9,29.82,West,268,0.0,0.0,84,0.00,,SCT020,0.00,VWS V14.01,2013-11-19 06:56:00,
2013-11-19 01:57:00,73.9,68.8,29.82,West,268,0.0,0.0,84,0.00,,SCT020,0.00,VWS V14.01,2013-11-19 06:57:00,
2013-11-19 02:00:00,73.9,68.8,29.82,West,268,0.0,0.0,84,0.00,,SCT020,0.00,VWS V14.01,2013-11-19 07:00:00,
2013-11-19 02:01:00,73.9,68.8,29.82,West,268,0.0,0.0,84,0.00,,SCT020,0.00,VWS V14.01,2013-11-19 07:01:00,
2013-11-19 02:02:00,73.9,68.8,29.82,West,268,0.0,0.0,84,0.00,,SCT020,0.00,VWS V14.01,2013-11-19 07:02:00,
2013-11-19 02:04:00,73.7,68.6,29.82,West,268,0.0,0.0,84,0.00,,SCT020,0.00,VWS V14.01,2013-11-19 07:04:00,
2013-11-19 02:06:00,73.7,68.6,29.82,West,268,0.0,0.0,84,0.00,,SCT020,0.00,VWS V14.01,2013-11-19 07:06:00,
2013-11-19 02:09:00,73.7,68.6,29.82,West,268,0.0,0.0,84,0.00,,SCT020,0.00,VWS V14.01,2013-11-19 07:09:00,
2013-11-19 02:11:00,73.5,68.4,29.82,West,268,0.0,0.0,84,0.00,,SCT020,0.00,VWS V14.01,2013-11-19 07:11:00,
2013-11-19 02:13:00,73.5,68.4,29.82,West,268,0.0,0.0,84,0.00,,SCT020,0.00,VWS V14.01,2013-11-19 07:13:00,
2013-11-19 02:14:00,73.5,68.4,29.82,West,268,0.0,0.0,84,0.00,,SCT020,0.00,VWS V14.01,2013-11-19 07:14:00,
2013-11-19 02:16:00,73.5,68.4,29.82,West,268,0.0,0.0,84,0.00,,SCT020,0.00,VWS V14.01,2013-11-19 07:16:00,
2013-11-19 02:17:00,73.5,68.4,29.82,West,268,0.0,0.0,84,0.00,,SCT020,0.00,VWS V14.01,2013-11-19 07:17:00,
2013-11-19 02:18:00,73.3,68.2,29.82,West,268,0.0,0.0,84,0.00,,SCT020,0.00,VWS V14.01,2013-11-19 07:18:00,
2013-11-19 02:19:00,73.3,68.5,29.82,West,268,0.0,0.0,85,0.00,,SCT020,0.00,VWS V14.01,2013-11-19 07:19:00,
2013-11-19 02:22:00,73.3,68.5,29.82,West,268,0.0,0.0,85,0.00,,SCT020,0.00,VWS V14.01,2013-11-19 07:22:00,
2013-11-19 02:23:00,73.2,68.4,29.82,West,268,0.0,0.0,85,0.00,,SCT020,0.00,VWS V14.01,2013-11-19 07:23:00,
2013-11-19 02:24:00,73.2,68.4,29.82,West,268,0.0,0.0,85,0.00,,SCT020,0.00,VWS V14.01,2013-11-19 07:24:00,
2013-11-19 02:26:00,73.2,68.4,29.82,West,268,0.0,0.0,85,0.00,,SCT020,0.00,VWS V14.01,2013-11-19 07:26:00,
2013-11-19 02:29:00,73.2,68.4,29.82,West,268,0.0,0.0,85,0.00,,SCT020,0.00,VWS V14.01,2013-11-19 07:29:00,
2013-11-19 02:30:00,73.2,68.4,29.81,West,268,0.0,0.0,85,0.00,,SCT020,0.00,VWS V14.01,2013-11-19 07:30:00,
2013-11-19 02:32:00,73.0,68.6,29.81,West,268,0.0,0.0,86,0.00,,SCT020,0.00,VWS V14.01,2013-11-19 07:32:00,
2013-11-19 02:35:00,73.0,68.6,29.81,West,268,0.0,0.0,86,0.00,,SCT020,0.00,VWS V14.01,2013-11-19 07:35:00,
2013-11-19 02:36:00,73.0,68.6,29.81,West,268,0.0,0.0,86,0.00,,SCT020,0.00,VWS V14.01,2013-11-19 07:36:00,
2013-11-19 02:37:00,73.0,68.6,29.81,West,268,0.0,0.0,86,0.00,,SCT020,0.00,VWS V14.01,2013-11-19 07:37:00,
2013-11-19 02:40:00,73.0,68.6,29.81,West,268,0.0,0.0,86,0.00,,SCT020,0.00,VWS V14.01,2013-11-19 07:40:00,
2013-11-19 02:41:00,73.0,68.6,29.81,West,268,0.0,0.0,86,0.00,,SCT020,0.00,VWS V14.01,2013-11-19 07:41:00,
2013-11-19 02:42:00,72.8,68.4,29.81,West,268,0.0,0.0,86,0.00,,SCT020,0.00,VWS V14.01,2013-11-19 07:42:00,
2013-11-19 02:44:00,72.8,68.4,29.81,West,268,0.0,0.0,86,0.00,,SCT020,0.00,VWS V14.01,2013-11-19 07:44:00,
2013-11-19 02:46:00,72.8,68.4,29.80,West,268,0.0,0.0,86,0.00,,SCT020,0.00,VWS V14.01,2013-11-19 07:46:00,
2013-11-19 02:47:00,72.8,68.4,29.80,West,268,0.0,0.0,86,0.00,,SCT020,0.00,VWS V14.01,2013-11-19 07:47:00,
2013-11-19 02:49:00,72.8,68.7,29.80,West,268,0.0,0.0,87,0.00,,SCT020,0.00,VWS V14.01,2013-11-19 07:49:00,
2013-11-19 02:50:00,72.8,68.7,29.80,West,268,0.0,0.0,87,0.00,,SCT020,0.00,VWS V14.01,2013-11-19 07:50:00,
2013-11-19 02:51:00,72.7,68.6,29.80,West,268,0.0,0.0,87,0.00,,SCT020,0.00,VWS V14.01,2013-11-19 07:51:00,
2013-11-19 02:55:00,72.7,68.6,29.80,West,268,0.0,0.0,87,0.00,,SCT020,0.00,VWS V14.01,2013-11-19 07:55:00,
2013-11-19 02:56:00,72.7,68.6,29.80,West,268,0.0,0.0,87,0.00,,SCT020,0.00,VWS V14.01,2013-11-19 07:56:00,
2013-11-19 02:57:00,72.7,68.6,29.80,West,268,0.0,0.0,87,0.00,,SCT020,0.00,VWS V14.01,2013-11-19 07:57:00,
2013-11-19 02:59:00,72.7,68.6,29.80,West,268,0.0,0.0,87,0.00,,SCT020,0.00,VWS V14.01,2013-11-19 07:59:00,
2013-11-19 03:01:00,72.7,68.6,29.80,West,268,0.0,0.0,87,0.00,,SCT020,0.00,VWS V14.01,2013-11-19 08:01:00,
2013-11-19 03:02:00,72.7,68.6,29.80,West,268,0.0,0.0,87,0.00,,SCT020,0.00,VWS V14.01,2013-11-19 08:02:00,
2013-11-19 03:03:00,72.5,68.4,29.80,West,268,0.0,0.0,87,0.00,,SCT020,0.00,VWS V14.01,2013-11-19 08:03:00,
2013-11-19 03:06:00,72.7,68.6,29.80,West,268,0.0,0.0,87,0.00,,SCT020,0.00,VWS V14.01,2013-11-19 08:06:00,
2013-11-19 03:07:00,72.7,68.6,29.80,West,268,0.0,0.0,87,0.00,,SCT020,0.00,VWS V14.01,2013-11-19 08:07:00,
2013-11-19 03:08:00,72.7,68.6,29.80,West,268,0.0,0.0,87,0.00,,SCT020,0.00,VWS V14.01,2013-11-19 08:08:00,
2013-11-19 03:10:00,72.5,68.4,29.80,West,268,0.0,0.0,87,0.00,,SCT020,0.00,VWS V14.01,2013-11-19 08:10:00,
2013-11-19 03:11:00,72.5,68.4,29.80,West,268,0.0,0.0,87,0.00,,SCT020,0.00,VWS V14.01,2013-11-19 08:11:00,
2013-11-19 03:12:00,72.5,68.4,29.80,West,268,0.0,0.0,87,0.00,,SCT020,0.00,VWS V14.01,2013-11-19 08:12:00,
2013-11-19 03:14:00,72.5,68.4,29.80,West,268,0.0,0.0,87,0.00,,SCT020,0.00,VWS V14.01,2013-11-19 08:14:00,
2013-11-19 03:17:00,72.5,68.4,29.80,West,268,0.0,0.0,87,0.00,,SCT020,0.00,VWS V14.01,2013-11-19 08:17:00,
2013-11-19 03:18:00,72.5,68.4,29.80,West,268,0.0,0.0,87,0.00,,SCT020,0.00,VWS V14.01,2013-11-19 08:18:00,
2013-11-19 03:21:00,72.5,68.4,29.80,West,268,0.0,0.0,87,0.00,,SCT020,0.00,VWS V14.01,2013-11-19 08:21:00,
2013-11-19 03:22:00,72.5,68.4,29.80,West,268,0.0,0.0,87,0.00,,SCT020,0.00,VWS V14.01,2013-11-19 08:22:00,
2013-11-19 03:24:00,72.5,68.4,29.80,West,268,0.0,0.0,87,0.00,,SCT020,0.00,VWS V14.01,2013-11-19 08:24:00,
2013-11-19 03:27:00,72.3,68.6,29.80,West,268,0.0,0.0,88,0.00,,SCT020,0.00,VWS V14.01,2013-11-19 08:27:00,
2013-11-19 03:29:00,72.3,68.6,29.80,West,268,0.0,0.0,88,0.00,,SCT020,0.00,VWS V14.01,2013-11-19 08:29:00,
2013-11-19 03:30:00,72.3,68.6,29.80,West,268,0.0,0.0,88,0.00,,SCT020,0.00,VWS V14.01,2013-11-19 08:30:00,
2013-11-19 03:34:00,72.1,68.3,29.80,West,268,0.0,0.0,88,0.00,,SCT020,0.00,VWS V14.01,2013-11-19 08:34:00,
2013-11-19 03:36:00,72.1,68.3,29.80,West,268,0.0,0.0,88,0.00,,SCT020,0.00,VWS V14.01,2013-11-19 08:36:00,
2013-11-19 03:39:00,72.1,68.3,29.80,West,268,0.0,0.0,88,0.00,,SCT020,0.00,VWS V14.01,2013-11-19 08:39:00,
2013-11-19 03:40:00,72.1,68.3,29.80,West,268,0.0,0.0,88,0.00,,SCT020,0.00,VWS V14.01,2013-11-19 08:40:00,
2013-11-19 03:41:00,72.1,68.3,29.80,West,268,0.0,0.0,88,0.00,,SCT020,0.00,VWS V14.01,2013-11-19 08:41:00,
2013-11-19 03:42:00,72.1,68.3,29.80,West,268,0.0,0.0,88,0.00,,SCT020,0.00,VWS V14.01,2013-11-19 08:42:00,
2013-11-19 03:46:00,72.1,68.3,29.80,West,268,0.0,0.0,88,0.00,,SCT020,0.00,VWS V14.01,2013-11-19 08:46:00,
2013-11-19 03:48:00,72.1,68.3,29.80,West,268,0.0,0.0,88,0.00,,SCT020,0.00,VWS V14.01,2013-11-19 08:48:00,
2013-11-19 03:50:00,72.1,68.3,29.80,West,268,0.0,0.0,88,0.00,,SCT020,0.00,VWS V14.01,2013-11-19 08:50:00,
2013-11-19 03:53:00,72.1,68.3,29.80,West,268,1.0,1.0,88,0.00,,SCT020,0.00,VWS V14.01,2013-11-19 08:53:00,
2013-11-19 03:56:00,72.1,68.3,29.80,West,268,1.0,2.0,88,0.00,,SCT020,0.00,VWS V14.01,2013-11-19 08:56:00,
2013-11-19 03:57:00,72.1,68.3,29.80,West,268,1.0,1.0,88,0.00,,SCT020,0.00,VWS V14.01,2013-11-19 08:57:00,
2013-11-19 03:58:00,72.1,68.3,29.80,West,268,0.0,1.0,88,0.00,,SCT020,0.00,VWS V14.01,2013-11-19 08:58:00,
2013-11-19 03:59:00,72.1,68.3,29.80,West,268,0.0,0.0,88,0.00,,SCT020,0.00,VWS V14.01,2013-11-19 08:59:00,
2013-11-19 04:00:00,72.1,68.3,29.80,West,268,0.0,0.0,88,0.00,,SCT020,0.00,VWS V14.01,2013-11-19 09:00:00,
2013-11-19 04:04:00,72.1,68.3,29.80,West,268,0.0,0.0,88,0.00,,SCT020,0.00,VWS V14.01,2013-11-19 09:04:00,
2013-11-19 04:05:00,72.1,68.3,29.80,West,268,0.0,0.0,88,0.00,,SCT020,0.00,VWS V14.01,2013-11-19 09:05:00,
2013-11-19 04:07:00,72.1,68.3,29.80,West,268,0.0,0.0,88,0.00,,SCT020,0.00,VWS V14.01,2013-11-19 09:07:00,
2013-11-19 04:08:00,72.1,68.3,29.80,West,268,0.0,0.0,88,0.00,,SCT020,0.00,VWS V14.01,2013-11-19 09:08:00,
2013-11-19 04:11:00,72.0,68.6,29.80,West,268,0.0,0.0,89,0.00,,SCT020,0.00,VWS V14.01,2013-11-19 09:11:00,
2013-11-19 04:14:00,72.0,68.6,29.80,West,268,0.0,0.0,89,0.00,,SCT020,0.00,VWS V14.01,2013-11-19 09:14:00,
2013-11-19 04:15:00,72.0,68.6,29.80,West,268,0.0,0.0,89,0.00,,SCT020,0.00,VWS V14.01,2013-11-19 09:15:00,
2013-11-19 04:16:00,72.0,68.6,29.80,West,268,0.0,0.0,89,0.00,,SCT020,0.00,VWS V14.01,2013-11-19 09:16:00,
2013-11-19 04:17:00,72.0,68.6,29.80,West,268,0.0,0.0,89,0.00,,SCT020,0.00,VWS V14.01,2013-11-19 09:17:00,
2013-11-19 04:20:00,72.0,68.6,29.80,West,268,0.0,0.0,89,0.00,,SCT020,0.00,VWS V14.01,2013-11-19 09:20:00,
2013-11-19 04:22:00,72.0,68.6,29.80,West,268,0.0,0.0,89,0.00,,SCT020,0.00,VWS V14.01,2013-11-19 09:22:00,
2013-11-19 04:24:00,72.0,68.6,29.80,West,268,0.0,0.0,89,0.00,,SCT020,0.00,VWS V14.01,2013-11-19 09:24:00,
2013-11-19 04:26:00,72.0,68.6,29.80,West,268,0.0,0.0,89,0.00,,SCT020,0.00,VWS V14.01,2013-11-19 09:26:00,
2013-11-19 04:28:00,72.0,68.6,29.80,West,268,0.0,0.0,89,0.00,,SCT020,0.00,VWS V14.01,2013-11-19 09:28:00,
2013-11-19 04:30:00,72.0,68.6,29.80,West,268,0.0,0.0,89,0.00,,SCT020,0.00,VWS V14.01,2013-11-19 09:30:00,
2013-11-19 04:31:00,72.0,68.6,29.80,West,268,0.0,0.0,89,0.00,,SCT020,0.00,VWS V14.01,2013-11-19 09:31:00,
2013-11-19 04:34:00,72.0,68.6,29.80,West,268,0.0,0.0,89,0.00,,SCT020,0.00,VWS V14.01,2013-11-19 09:34:00,
2013-11-19 04:35:00,72.0,68.6,29.80,West,268,0.0,0.0,89,0.00,,SCT020,0.00,VWS V14.01,2013-11-19 09:35:00,
2013-11-19 04:36:00,72.0,68.6,29.80,West,268,0.0,0.0,89,0.00,,SCT020,0.00,VWS V14.01,2013-11-19 09:36:00,
2013-11-19 04:37:00,72.0,68.6,29.80,West,268,0.0,0.0,89,0.00,,SCT020,0.00,VWS V14.01,2013-11-19 09:37:00,
2013-11-19 04:38:00,72.0,68.6,29.80,West,268,0.0,0.0,89,0.00,,SCT020,0.00,VWS V14.01,2013-11-19 09:38:00,
2013-11-19 04:39:00,72.0,68.6,29.80,West,268,0.0,0.0,89,0.00,,SCT020,0.00,VWS V14.01,2013-11-19 09:39:00,
2013-11-19 04:41:00,72.0,68.6,29.80,West,268,0.0,0.0,89,0.00,,SCT020,0.00,VWS V14.01,2013-11-19 09:41:00,
2013-11-19 04:42:00,72.0,68.6,29.80,West,268,0.0,0.0,89,0.00,,SCT020,0.00,VWS V14.01,2013-11-19 09:42:00,
2013-11-19 04:44:00,72.1,68.7,29.80,West,268,0.0,0.0,89,0.00,,SCT020,0.00,VWS V14.01,2013-11-19 09:44:00,
2013-11-19 04:45:00,72.1,68.7,29.80,West,268,0.0,0.0,89,0.00,,SCT020,0.00,VWS V14.01,2013-11-19 09:45:00,
2013-11-19 04:47:00,72.1,68.7,29.80,West,268,0.0,0.0,89,0.00,,SCT020,0.00,VWS V14.01,2013-11-19 09:47:00,
2013-11-19 04:50:00,72.3,68.9,29.80,West,268,0.0,2.0,89,0.00,,SCT020,0.00,VWS V14.01,2013-11-19 09:50:00,
2013-11-19 04:52:00,72.3,68.9,29.80,West,268,0.0,0.0,89,0.00,,SCT020,0.00,VWS V14.01,2013-11-19 09:52:00,
2013-11-19 04:53:00,72.3,68.9,29.80,West,268,0.0,0.0,89,0.00,,SCT020,0.00,VWS V14.01,2013-11-19 09:53:00,
2013-11-19 04:54:00,72.3,68.9,29.80,West,268,0.0,0.0,89,0.00,,SCT020,0.00,VWS V14.01,2013-11-19 09:54:00,
2013-11-19 04:55:00,72.3,68.9,29.80,West,268,0.0,0.0,89,0.00,,SCT020,0.00,VWS V14.01,2013-11-19 09:55:00,
2013-11-19 04:56:00,72.3,68.9,29.80,West,268,0.0,0.0,89,0.00,,SCT020,0.00,VWS V14.01,2013-11-19 09:56:00,
2013-11-19 04:57:00,72.3,68.9,29.80,West,268,0.0,0.0,89,0.00,,SCT020,0.00,VWS V14.01,2013-11-19 09:57:00,
2013-11-19 05:00:00,72.3,68.9,29.80,West,268,0.0,0.0,89,0.00,,SCT020,0.00,VWS V14.01,2013-11-19 10:00:00,
2013-11-19 05:01:00,72.3,68.9,29.80,West,268,0.0,0.0,89,0.00,,SCT020,0.00,VWS V14.01,2013-11-19 10:01:00,
2013-11-19 05:03:00,72.3,68.9,29.80,West,268,2.0,2.0,89,0.00,,SCT020,0.00,VWS V14.01,2013-11-19 10:03:00,
2013-11-19 05:04:00,72.5,69.1,29.80,West,268,1.0,2.0,89,0.00,,SCT020,0.00,VWS V14.01,2013-11-19 10:04:00,
2013-11-19 05:06:00,72.5,69.1,29.80,West,268,1.0,2.0,89,0.00,,SCT020,0.00,VWS V14.01,2013-11-19 10:06:00,
2013-11-19 05:08:00,72.7,69.3,29.80,West,268,2.0,2.0,89,0.00,,SCT020,0.00,VWS V14.01,2013-11-19 10:08:00,
2013-11-19 05:09:00,72.7,69.3,29.80,West,268,1.0,2.0,89,0.00,,SCT020,0.00,VWS V14.01,2013-11-19 10:09:00,
2013-11-19 05:12:00,72.7,69.3,29.80,West,267,2.0,4.0,89,0.00,,SCT020,0.00,VWS V14.01,2013-11-19 10:12:00,
2013-11-19 05:14:00,72.8,69.0,29.80,West,267,2.0,4.0,88,0.00,,SCT020,0.00,VWS V14.01,2013-11-19 10:14:00,
2013-11-19 05:15:00,72.8,69.0,29.80,West,260,4.0,4.0,88,0.00,,SCT020,0.00,VWS V14.01,2013-11-19 10:15:00,
2013-11-19 05:16:00,72.8,69.0,29.80,West,260,4.0,4.0,88,0.00,,SCT020,0.00,VWS V14.01,2013-11-19 10:16:00,
2013-11-19 05:17:00,72.8,69.0,29.80,West,260,2.0,6.0,88,0.00,,SCT020,0.00,VWS V14.01,2013-11-19 10:17:00,
2013-11-19 05:22:00,73.0,69.2,29.80,West,260,2.0,6.0,88,0.00,,SCT020,0.00,VWS V14.01,2013-11-19 10:22:00,
2013-11-19 05:24:00,73.0,69.2,29.80,West,260,2.0,6.0,88,0.00,,SCT020,0.00,VWS V14.01,2013-11-19 10:24:00,
2013-11-19 05:25:00,73.0,68.9,29.80,West,260,4.0,4.0,87,0.00,,SCT020,0.00,VWS V14.01,2013-11-19 10:25:00,
2013-11-19 05:26:00,73.0,68.9,29.80,West,265,2.0,4.0,87,0.00,,SCT020,0.00,VWS V14.01,2013-11-19 10:26:00,
2013-11-19 05:28:00,73.0,68.9,29.80,West,265,2.0,4.0,87,0.00,,SCT020,0.00,VWS V14.01,2013-11-19 10:28:00,
2013-11-19 05:29:00,73.2,69.1,29.80,West,265,0.0,2.0,87,0.00,,SCT020,0.00,VWS V14.01,2013-11-19 10:29:00,
2013-11-19 05:31:00,73.2,69.1,29.80,West,265,4.0,4.0,87,0.00,,SCT020,0.00,VWS V14.01,2013-11-19 10:31:00,
2013-11-19 05:32:00,73.2,69.1,29.80,West,265,2.0,4.0,87,0.00,,SCT020,0.00,VWS V14.01,2013-11-19 10:32:00,
2013-11-19 05:33:00,73.2,69.1,29.80,West,265,2.0,4.0,87,0.00,,SCT020,0.00,VWS V14.01,2013-11-19 10:33:00,
2013-11-19 05:37:00,73.2,69.1,29.80,WNW,282,2.0,4.0,87,0.00,,SCT020,0.00,VWS V14.01,2013-11-19 10:37:00,
2013-11-19 05:38:00,73.2,69.1,29.80,WNW,282,1.0,4.0,87,0.00,,SCT020,0.00,VWS V14.01,2013-11-19 10:38:00,
2013-11-19 05:42:00,73.2,69.1,29.80,WSW,248,4.0,4.0,87,0.00,,SCT020,0.00,VWS V14.01,2013-11-19 10:42:00,
2013-11-19 05:43:00,73.2,69.1,29.80,WSW,258,6.0,6.0,87,0.00,,SCT020,0.00,VWS V14.01,2013-11-19 10:43:00,
2013-11-19 05:44:00,73.2,69.1,29.80,WSW,258,4.0,6.0,87,0.00,,SCT020,0.00,VWS V14.01,2013-11-19 10:44:00,
2013-11-19 05:46:00,73.2,69.1,29.81,West,268,2.0,7.0,87,0.00,,SCT020,0.00,VWS V14.01,2013-11-19 10:46:00,
2013-11-19 05:47:00,73.2,69.1,29.81,West,267,4.0,6.0,87,0.00,,SCT020,0.00,VWS V14.01,2013-11-19 10:47:00,
2013-11-19 05:49:00,73.0,68.9,29.81,West,268,1.0,2.0,87,0.00,,SCT020,0.00,VWS V14.01,2013-11-19 10:49:00,
2013-11-19 05:50:00,73.0,68.9,29.81,West,264,2.0,6.0,87,0.00,,SCT020,0.00,VWS V14.01,2013-11-19 10:50:00,
2013-11-19 05:51:00,73.0,68.9,29.81,West,264,4.0,4.0,87,0.00,,SCT020,0.00,VWS V14.01,2013-11-19 10:51:00,
2013-11-19 05:55:00,73.0,68.9,29.81,West,264,1.0,4.0,87,0.00,,SCT020,0.00,VWS V14.01,2013-11-19 10:55:00,
2013-11-19 05:56:00,73.0,68.9,29.81,West,263,1.0,4.0,87,0.00,,SCT020,0.00,VWS V14.01,2013-11-19 10:56:00,
2013-11-19 05:57:00,73.0,68.9,29.81,West,263,2.0,2.0,87,0.00,,SCT020,0.00,VWS V14.01,2013-11-19 10:57:00,
2013-11-19 06:02:00,73.0,68.9,29.81,West,263,0.0,2.0,87,0.00,,SCT020,0.00,VWS V14.01,2013-11-19 11:02:00,
2013-11-19 06:03:00,73.0,68.9,29.81,West,263,2.0,2.0,87,0.00,,SCT020,0.00,VWS V14.01,2013-11-19 11:03:00,
2013-11-19 06:04:00,73.0,68.9,29.81,West,263,0.0,2.0,87,0.00,,SCT020,0.00,VWS V14.01,2013-11-19 11:04:00,
2013-11-19 06:05:00,73.0,68.9,29.81,West,263,0.0,1.0,87,0.00,,SCT020,0.00,VWS V14.01,2013-11-19 11:05:00,
2013-11-19 06:07:00,73.0,68.9,29.81,West,263,0.0,1.0,87,0.00,,SCT020,0.00,VWS V14.01,2013-11-19 11:07:00,
2013-11-19 06:09:00,73.0,68.9,29.81,West,263,1.0,2.0,87,0.00,,SCT020,0.00,VWS V14.01,2013-11-19 11:09:00,
2013-11-19 06:11:00,73.0,68.9,29.81,West,263,0.0,1.0,87,0.00,,SCT020,0.00,VWS V14.01,2013-11-19 11:11:00,
2013-11-19 06:13:00,73.0,68.9,29.81,West,263,1.0,2.0,87,0.00,,SCT020,0.00,VWS V14.01,2013-11-19 11:13:00,
2013-11-19 06:14:00,73.0,68.9,29.81,West,263,0.0,1.0,87,0.00,,SCT020,0.00,VWS V14.01,2013-11-19 11:14:00,
2013-11-19 06:16:00,72.8,68.7,29.82,West,263,1.0,1.0,87,0.00,,SCT020,0.00,VWS V14.01,2013-11-19 11:16:00,
2013-11-19 06:19:00,72.8,68.7,29.82,West,263,1.0,2.0,87,0.00,,SCT020,0.00,VWS V14.01,2013-11-19 11:19:00,
2013-11-19 06:21:00,72.8,68.7,29.82,West,263,0.0,1.0,87,0.00,,SCT020,0.00,VWS V14.01,2013-11-19 11:21:00,
2013-11-19 06:23:00,72.8,68.7,29.82,West,263,2.0,2.0,87,0.00,,SCT020,0.00,VWS V14.01,2013-11-19 11:23:00,
2013-11-19 06:24:00,72.8,68.7,29.82,West,263,4.0,4.0,87,0.00,,SCT020,0.00,VWS V14.01,2013-11-19 11:24:00,
2013-11-19 06:25:00,72.8,68.7,29.82,West,263,2.0,4.0,87,0.00,,SCT020,0.00,VWS V14.01,2013-11-19 11:25:00,
2013-11-19 06:27:00,72.7,68.6,29.82,West,263,1.0,2.0,87,0.00,,SCT020,0.00,VWS V14.01,2013-11-19 11:27:00,
2013-11-19 06:29:00,72.7,68.6,29.82,West,281,1.0,4.0,87,0.00,,SCT020,0.00,VWS V14.01,2013-11-19 11:29:00,
2013-11-19 06:30:00,72.7,68.6,29.82,West,281,1.0,2.0,87,0.00,,SCT020,0.00,VWS V14.01,2013-11-19 11:30:00,
2013-11-19 06:31:00,72.7,68.6,29.82,West,272,1.0,4.0,87,0.00,,SCT020,0.00,VWS V14.01,2013-11-19 11:31:00,
2013-11-19 06:35:00,72.7,68.6,29.82,WNW,289,2.0,2.0,87,0.00,,SCT020,0.00,VWS V14.01,2013-11-19 11:35:00,
2013-11-19 06:36:00,72.5,68.4,29.82,WNW,289,1.0,2.0,87,0.00,,SCT020,0.00,VWS V14.01,2013-11-19 11:36:00,
2013-11-19 06:37:00,72.5,68.4,29.82,WNW,289,2.0,2.0,87,0.00,,SCT020,0.00,VWS V14.01,2013-11-19 11:37:00,
2013-11-19 06:39:00,72.5,68.4,29.82,WNW,289,1.0,2.0,87,0.00,,SCT020,0.00,VWS V14.01,2013-11-19 11:39:00,
2013-11-19 06:40:00,72.5,68.4,29.82,WNW,289,1.0,1.0,87,0.00,,SCT020,0.00,VWS V14.01,2013-11-19 11:40:00,
2013-11-19 06:43:00,72.5,68.4,29.82,WNW,289,1.0,1.0,87,0.00,,SCT020,0.00,VWS V14.01,2013-11-19 11:43:00,
2013-11-19 06:45:00,72.5,68.8,29.82,WNW,289,2.0,4.0,88,0.00,,SCT020,0.00,VWS V14.01,2013-11-19 11:45:00,
2013-11-19 06:46:00,72.5,68.8,29.82,WNW,289,1.0,4.0,88,0.00,,SCT020,0.00,VWS V14.01,2013-11-19 11:46:00,
2013-11-19 06:49:00,72.5,68.8,29.82,WNW,289,1.0,1.0,88,0.00,,SCT020,0.00,VWS V14.01,2013-11-19 11:49:00,
2013-11-19 06:51:00,72.5,68.8,29.82,WNW,289,2.0,2.0,88,0.00,,SCT020,0.00,VWS V14.01,2013-11-19 11:51:00,
2013-11-19 06:53:00,72.5,68.8,29.82,WNW,289,0.0,1.0,88,0.00,,SCT020,0.00,VWS V14.01,2013-11-19 11:53:00,
2013-11-19 06:54:00,72.5,68.8,29.82,WNW,289,1.0,1.0,88,0.00,,SCT020,0.00,VWS V14.01,2013-11-19 11:54:00,
2013-11-19 06:55:00,72.5,68.8,29.82,WNW,289,1.0,1.0,88,0.00,,SCT020,0.00,VWS V14.01,2013-11-19 11:55:00,
2013-11-19 06:56:00,72.5,68.8,29.82,WNW,289,1.0,2.0,88,0.00,,SCT020,0.00,VWS V14.01,2013-11-19 11:56:00,
2013-11-19 06:58:00,72.5,68.8,29.82,WNW,289,0.0,0.0,88,0.00,,SCT020,0.00,VWS V14.01,2013-11-19 11:58:00,
2013-11-19 06:59:00,72.5,68.8,29.82,WNW,289,0.0,0.0,88,0.00,,SCT020,0.00,VWS V14.01,2013-11-19 11:59:00,
2013-11-19 07:03:00,72.3,68.6,29.82,WNW,289,0.0,0.0,88,0.00,,SCT020,0.00,VWS V14.01,2013-11-19 12:03:00,
2013-11-19 07:04:00,72.3,68.6,29.82,WNW,289,1.0,1.0,88,0.00,,SCT020,0.00,VWS V14.01,2013-11-19 12:04:00,
2013-11-19 07:07:00,72.3,68.6,29.82,WNW,289,0.0,0.0,88,0.00,,SCT020,0.00,VWS V14.01,2013-11-19 12:07:00,
2013-11-19 07:08:00,72.3,68.6,29.82,WNW,289,0.0,0.0,88,0.00,,SCT020,0.00,VWS V14.01,2013-11-19 12:08:00,
2013-11-19 07:09:00,72.3,68.6,29.82,WNW,289,0.0,0.0,88,0.00,,SCT020,0.00,VWS V14.01,2013-11-19 12:09:00,
2013-11-19 07:10:00,72.3,68.9,29.82,WNW,289,0.0,0.0,89,0.00,,SCT020,0.00,VWS V14.01,2013-11-19 12:10:00,
2013-11-19 07:11:00,72.3,68.9,29.82,WNW,289,0.0,0.0,89,0.00,,SCT020,0.00,VWS V14.01,2013-11-19 12:11:00,
2013-11-19 07:14:00,72.5,69.1,29.82,WNW,289,0.0,0.0,89,0.00,,SCT020,0.00,VWS V14.01,2013-11-19 12:14:00,
2013-11-19 07:15:00,72.5,69.1,29.83,WNW,289,0.0,0.0,89,0.00,,SCT020,0.00,VWS V14.01,2013-11-19 12:15:00,
2013-11-19 07:19:00,72.5,69.1,29.83,WNW,289,1.0,1.0,89,0.00,,SCT020,0.00,VWS V14.01,2013-11-19 12:19:00,
2013-11-19 07:21:00,72.5,69.1,29.83,WNW,289,2.0,2.0,89,0.00,,SCT020,0.00,VWS V14.01,2013-11-19 12:21:00,
2013-11-19 07:22:00,72.5,69.1,29.83,WNW,289,4.0,4.0,89,0.00,,SCT020,0.00,VWS V14.01,2013-11-19 12:22:00,
2013-11-19 07:25:00,72.5,69.1,29.83,WNW,289,1.0,2.0,89,0.00,,SCT020,0.00,VWS V14.01,2013-11-19 12:25:00,
2013-11-19 07:26:00,72.5,69.1,29.83,WNW,289,1.0,2.0,89,0.00,,SCT020,0.00,VWS V14.01,2013-11-19 12:26:00,
2013-11-19 07:27:00,72.5,69.1,29.83,WNW,289,2.0,4.0,89,0.00,,SCT020,0.00,VWS V14.01,2013-11-19 12:27:00,
2013-11-19 07:28:00,72.5,69.1,29.83,WNW,289,1.0,2.0,89,0.00,,SCT020,0.00,VWS V14.01,2013-11-19 12:28:00,
2013-11-19 07:31:00,72.7,69.3,29.83,WNW,289,1.0,2.0,89,0.00,,SCT020,0.00,VWS V14.01,2013-11-19 12:31:00,
2013-11-19 07:35:00,72.7,69.3,29.83,WNW,289,2.0,4.0,89,0.00,,SCT020,0.00,VWS V14.01,2013-11-19 12:35:00,
2013-11-19 07:36:00,72.7,69.3,29.83,WNW,289,1.0,2.0,89,0.00,,SCT020,0.00,VWS V14.01,2013-11-19 12:36:00,
2013-11-19 07:37:00,72.7,69.3,29.83,WNW,289,1.0,1.0,89,0.00,,SCT020,0.00,VWS V14.01,2013-11-19 12:37:00,
2013-11-19 07:39:00,72.7,69.3,29.83,WNW,289,2.0,2.0,89,0.00,,SCT020,0.00,VWS V14.01,2013-11-19 12:39:00,
2013-11-19 07:40:00,72.7,69.3,29.83,WNW,289,4.0,4.0,89,0.00,,SCT020,0.00,VWS V14.01,2013-11-19 12:40:00,
2013-11-19 07:44:00,72.7,69.3,29.83,WNW,289,2.0,2.0,89,0.00,,SCT020,0.00,VWS V14.01,2013-11-19 12:44:00,
2013-11-19 07:45:00,72.7,69.3,29.84,WNW,289,2.0,2.0,89,0.00,,SCT020,0.00,VWS V14.01,2013-11-19 12:45:00,
2013-11-19 07:47:00,72.8,69.4,29.84,WNW,289,2.0,2.0,89,0.00,,SCT020,0.00,VWS V14.01,2013-11-19 12:47:00,
2013-11-19 07:48:00,72.8,69.4,29.84,WNW,289,1.0,2.0,89,0.00,,SCT020,0.00,VWS V14.01,2013-11-19 12:48:00,
2013-11-19 07:49:00,72.8,69.4,29.84,WNW,289,0.0,2.0,89,0.00,,SCT020,0.00,VWS V14.01,2013-11-19 12:49:00,
2013-11-19 07:50:00,72.8,69.4,29.84,WNW,289,1.0,2.0,89,0.00,,SCT020,0.00,VWS V14.01,2013-11-19 12:50:00,
2013-11-19 07:53:00,72.8,69.4,29.84,WNW,289,2.0,2.0,89,0.00,,SCT020,0.00,VWS V14.01,2013-11-19 12:53:00,
2013-11-19 07:55:00,72.8,69.4,29.84,WNW,289,2.0,2.0,89,0.00,,SCT020,0.00,VWS V14.01,2013-11-19 12:55:00,
2013-11-19 07:56:00,72.8,69.4,29.84,WNW,289,1.0,2.0,89,0.00,,SCT020,0.00,VWS V14.01,2013-11-19 12:56:00,
2013-11-19 07:59:00,72.8,69.4,29.84,WNW,289,2.0,2.0,89,0.00,,SCT020,0.00,VWS V14.01,2013-11-19 12:59:00,
2013-11-19 08:00:00,72.8,69.4,29.85,WNW,289,2.0,2.0,89,0.00,,SCT020,0.00,VWS V14.01,2013-11-19 13:00:00,
2013-11-19 08:01:00,72.8,69.4,29.85,WNW,289,1.0,2.0,89,0.00,,SCT020,0.00,VWS V14.01,2013-11-19 13:01:00,
2013-11-19 08:02:00,72.8,69.4,29.85,WNW,287,2.0,2.0,89,0.00,,SCT020,0.00,VWS V14.01,2013-11-19 13:02:00,
2013-11-19 08:05:00,73.0,69.6,29.85,WNW,287,2.0,4.0,89,0.00,,SCT020,0.00,VWS V14.01,2013-11-19 13:05:00,
2013-11-19 08:06:00,73.0,69.6,29.85,WNW,287,1.0,2.0,89,0.00,,SCT020,0.00,VWS V14.01,2013-11-19 13:06:00,
2013-11-19 08:08:00,73.0,69.6,29.85,WNW,287,1.0,2.0,89,0.00,,SCT020,0.00,VWS V14.01,2013-11-19 13:08:00,
2013-11-19 08:11:00,73.0,69.6,29.85,WNW,302,2.0,2.0,89,0.00,,SCT020,0.00,VWS V14.01,2013-11-19 13:11:00,
2013-11-19 08:14:00,73.2,69.4,29.85,WNW,288,1.0,4.0,88,0.00,,SCT020,0.00,VWS V14.01,2013-11-19 13:14:00,
2013-11-19 08:15:00,73.2,69.4,29.85,WNW,288,2.0,4.0,88,0.00,,SCT020,0.00,VWS V14.01,2013-11-19 13:15:00,
2013-11-19 08:16:00,73.2,69.4,29.85,WNW,288,1.0,2.0,88,0.00,,SCT020,0.00,VWS V14.01,2013-11-19 13:16:00,
2013-11-19 08:17:00,73.2,69.4,29.85,WNW,288,0.0,4.0,88,0.00,,SCT020,0.00,VWS V14.01,2013-11-19 13:17:00,
2013-11-19 08:18:00,73.2,69.4,29.85,WNW,288,2.0,2.0,88,0.00,,SCT020,0.00,VWS V14.01,2013-11-19 13:18:00,
2013-11-19 08:23:00,73.3,69.5,29.85,West,275,4.0,4.0,88,0.00,,SCT020,0.00,VWS V14.01,2013-11-19 13:23:00,
2013-11-19 08:24:00,73.5,69.7,29.85,WNW,289,1.0,6.0,88,0.00,,SCT020,0.00,VWS V14.01,2013-11-19 13:24:00,
2013-11-19 08:25:00,73.5,69.7,29.85,WNW,288,0.0,4.0,88,0.00,,SCT020,0.00,VWS V14.01,2013-11-19 13:25:00,
2013-11-19 08:26:00,73.5,69.7,29.85,West,278,4.0,6.0,88,0.00,,SCT020,0.00,VWS V14.01,2013-11-19 13:26:00,
2013-11-19 08:27:00,73.5,69.7,29.85,WNW,282,2.0,6.0,88,0.00,,SCT020,0.00,VWS V14.01,2013-11-19 13:27:00,
2013-11-19 08:28:00,73.5,69.7,29.85,NW,304,2.0,2.0,88,0.00,,SCT020,0.00,VWS V14.01,2013-11-19 13:28:00,
2013-11-19 08:31:00,73.5,69.7,29.85,WNW,285,1.0,2.0,88,0.00,,SCT020,0.00,VWS V14.01,2013-11-19 13:31:00,
2013-11-19 08:33:00,73.7,69.9,29.85,WNW,284,2.0,2.0,88,0.00,,SCT020,0.00,VWS V14.01,2013-11-19 13:33:00,
2013-11-19 08:36:00,73.7,69.9,29.85,WNW,284,1.0,2.0,88,0.00,,SCT020,0.00,VWS V14.01,2013-11-19 13:36:00,
2013-11-19 08:39:00,73.9,70.1,29.85,WNW,284,1.0,1.0,88,0.00,,SCT020,0.00,VWS V14.01,2013-11-19 13:39:00,
2013-11-19 08:41:00,73.9,69.8,29.85,NW,304,1.0,4.0,87,0.00,,SCT020,0.00,VWS V14.01,2013-11-19 13:41:00,
2013-11-19 08:42:00,73.9,69.8,29.85,NW,304,2.0,2.0,87,0.00,,SCT020,0.00,VWS V14.01,2013-11-19 13:42:00,
2013-11-19 08:43:00,74.0,69.9,29.85,NW,304,0.0,2.0,87,0.00,,SCT020,0.00,VWS V14.01,2013-11-19 13:43:00,
2013-11-19 08:45:00,74.0,69.9,29.85,NNW,330,1.0,6.0,87,0.00,,SCT020,0.00,VWS V14.01,2013-11-19 13:45:00,
2013-11-19 08:46:00,74.0,69.9,29.85,NW,326,1.0,4.0,87,0.00,,SCT020,0.00,VWS V14.01,2013-11-19 13:46:00,
2013-11-19 08:48:00,74.0,69.9,29.85,NW,306,1.0,6.0,87,0.00,,SCT020,0.00,VWS V14.01,2013-11-19 13:48:00,
2013-11-19 08:49:00,74.0,69.9,29.85,West,270,7.0,7.0,87,0.00,,SCT020,0.00,VWS V14.01,2013-11-19 13:49:00,
2013-11-19 08:51:00,74.0,69.9,29.85,West,274,4.0,4.0,87,0.00,,SCT020,0.00,VWS V14.01,2013-11-19 13:51:00,
2013-11-19 08:54:00,74.2,70.1,29.85,West,277,1.0,2.0,87,0.00,,SCT020,0.00,VWS V14.01,2013-11-19 13:54:00,
2013-11-19 08:55:00,74.2,70.1,29.85,West,275,2.0,6.0,87,0.00,,SCT020,0.00,VWS V14.01,2013-11-19 13:55:00,
2013-11-19 08:56:00,74.2,70.1,29.85,WNW,282,2.0,4.0,87,0.00,,SCT020,0.00,VWS V14.01,2013-11-19 13:56:00,
2013-11-19 08:58:00,74.4,70.3,29.85,West,275,4.0,6.0,87,0.00,,SCT020,0.00,VWS V14.01,2013-11-19 13:58:00,
2013-11-19 08:59:00,74.4,70.3,29.85,West,280,2.0,6.0,87,0.00,,SCT020,0.00,VWS V14.01,2013-11-19 13:59:00,
2013-11-19 09:00:00,74.4,70.3,29.85,NW,308,2.0,4.0,87,0.00,,SCT020,0.00,VWS V14.01,2013-11-19 14:00:00,
2013-11-19 09:04:00,74.6,70.5,29.85,West,272,6.0,6.0,87,0.00,,SCT020,0.00,VWS V14.01,2013-11-19 14:04:00,
2013-11-19 09:06:00,74.6,70.5,29.85,WNW,284,1.0,4.0,87,0.00,,SCT020,0.00,VWS V14.01,2013-11-19 14:06:00,
2013-11-19 09:07:00,74.7,70.2,29.85,NW,305,0.0,4.0,86,0.00,,SCT020,0.00,VWS V14.01,2013-11-19 14:07:00,
2013-11-19 09:10:00,74.7,70.2,29.85,WNW,298,2.0,2.0,86,0.00,,SCT020,0.00,VWS V14.01,2013-11-19 14:10:00,
2013-11-19 09:11:00,74.7,70.2,29.85,WNW,292,2.0,4.0,86,0.00,,SCT020,0.00,VWS V14.01,2013-11-19 14:11:00,
2013-11-19 09:12:00,74.7,70.2,29.85,WNW,295,4.0,4.0,86,0.00,,SCT020,0.00,VWS V14.01,2013-11-19 14:12:00,
2013-11-19 09:13:00,74.7,70.2,29.85,WNW,295,0.0,4.0,86,0.00,,SCT020,0.00,VWS V14.01,2013-11-19 14:13:00,
2013-11-19 09:15:00,74.9,70.4,29.86,NW,304,2.0,6.0,86,0.00,,SCT020,0.00,VWS V14.01,2013-11-19 14:15:00,
2013-11-19 09:17:00,75.1,70.6,29.86,NW,304,4.0,4.0,86,0.00,,SCT020,0.00,VWS V14.01,2013-11-19 14:17:00,
2013-11-19 09:18:00,75.1,70.3,29.86,NNW,335,4.0,6.0,85,0.00,,SCT020,0.00,VWS V14.01,2013-11-19 14:18:00,
2013-11-19 09:20:00,75.1,70.3,29.86,NW,304,2.0,6.0,85,0.00,,SCT020,0.00,VWS V14.01,2013-11-19 14:20:00,
2013-11-19 09:24:00,75.3,70.5,29.86,WNW,291,0.0,2.0,85,0.00,,SCT020,0.00,VWS V14.01,2013-11-19 14:24:00,
2013-11-19 09:25:00,75.3,70.5,29.86,NW,309,1.0,1.0,85,0.00,,SCT020,0.00,VWS V14.01,2013-11-19 14:25:00,
2013-11-19 09:27:00,75.4,70.6,29.86,NW,319,0.0,2.0,85,0.00,,SCT020,0.00,VWS V14.01,2013-11-19 14:27:00,
2013-11-19 09:29:00,75.4,70.6,29.86,NNW,335,6.0,6.0,85,0.00,,SCT020,0.00,VWS V14.01,2013-11-19 14:29:00,
2013-11-19 09:32:00,75.6,70.4,29.86,North,353,2.0,4.0,84,0.00,,SCT020,0.00,VWS V14.01,2013-11-19 14:32:00,
2013-11-19 09:34:00,75.6,70.1,29.86,NW,304,4.0,6.0,83,0.00,,SCT020,0.00,VWS V14.01,2013-11-19 14:34:00,
2013-11-19 09:35:00,75.6,70.1,29.86,NW,325,2.0,6.0,83,0.00,,SCT020,0.00,VWS V14.01,2013-11-19 14:35:00,
2013-11-19 09:36:00,75.6,70.1,29.86,NW,313,1.0,4.0,83,0.00,,SCT020,0.00,VWS V14.01,2013-11-19 14:36:00,
2013-11-19 09:40:00,75.8,70.3,29.86,North,353,4.0,4.0,83,0.00,,SCT020,0.00,VWS V14.01,2013-11-19 14:40:00,
2013-11-19 09:41:00,75.8,70.3,29.86,NW,319,4.0,7.0,83,0.00,,SCT020,0.00,VWS V14.01,2013-11-19 14:41:00,
2013-11-19 09:42:00,75.8,70.3,29.86,WNW,299,2.0,6.0,83,0.00,,SCT020,0.00,VWS V14.01,2013-11-19 14:42:00,
2013-11-19 09:46:00,76.0,70.1,29.86,NNW,333,6.0,6.0,82,0.00,,SCT020,0.00,VWS V14.01,2013-11-19 14:46:00,
2013-11-19 09:48:00,76.1,70.2,29.86,WNW,298,4.0,4.0,82,0.00,,SCT020,0.00,VWS V14.01,2013-11-19 14:48:00,
2013-11-19 09:49:00,76.3,70.1,29.86,NW,312,2.0,6.0,81,0.00,,SCT020,0.00,VWS V14.01,2013-11-19 14:49:00,
2013-11-19 09:50:00,76.3,70.1,29.86,NW,312,2.0,7.0,81,0.00,,SCT020,0.00,VWS V14.01,2013-11-19 14:50:00,
2013-11-19 09:51:00,76.5,70.2,29.86,NW,312,2.0,2.0,81,0.00,,SCT020,0.00,VWS V14.01,2013-11-19 14:51:00,
2013-11-19 09:55:00,76.8,69.8,29.86,WNW,299,2.0,6.0,79,0.00,,SCT020,0.00,VWS V14.01,2013-11-19 14:55:00,
2013-11-19 09:56:00,76.8,69.8,29.86,NW,325,2.0,4.0,79,0.00,,SCT020,0.00,VWS V14.01,2013-11-19 14:56:00,
2013-11-19 09:57:00,77.0,70.0,29.86,NW,325,1.0,2.0,79,0.00,,SCT020,0.00,VWS V14.01,2013-11-19 14:57:00,
2013-11-19 09:58:00,77.0,70.0,29.86,NW,325,1.0,2.0,79,0.00,,SCT020,0.00,VWS V14.01,2013-11-19 14:58:00,
2013-11-19 10:00:00,77.4,70.4,29.86,NNW,342,1.0,6.0,79,0.00,,SCT020,0.00,VWS V14.01,2013-11-19 15:00:00,
2013-11-19 10:02:00,77.7,70.3,29.86,NW,309,2.0,4.0,78,0.00,,SCT020,0.00,VWS V14.01,2013-11-19 15:02:00,
2013-11-19 10:03:00,77.7,70.3,29.86,North,3,1.0,4.0,78,0.00,,SCT020,0.00,VWS V14.01,2013-11-19 15:03:00,
2013-11-19 10:04:00,77.9,70.5,29.86,North,354,1.0,2.0,78,0.00,,SCT020,0.00,VWS V14.01,2013-11-19 15:04:00,
2013-11-19 10:06:00,78.3,70.5,29.86,NW,318,4.0,4.0,77,0.00,,SCT020,0.00,VWS V14.01,2013-11-19 15:06:00,
2013-11-19 10:07:00,78.3,70.1,29.86,NNW,346,2.0,6.0,76,0.00,,SCT020,0.00,VWS V14.01,2013-11-19 15:07:00,
2013-11-19 10:08:00,78.3,70.1,29.86,NNW,332,4.0,7.0,76,0.00,,SCT020,0.00,VWS V14.01,2013-11-19 15:08:00,
2013-11-19 10:12:00,78.6,70.0,29.86,West,270,6.0,8.0,75,0.00,,SCT020,0.00,VWS V14.01,2013-11-19 15:12:00,
2013-11-19 10:13:00,78.6,70.0,29.86,NNW,328,1.0,6.0,75,0.00,,SCT020,0.00,VWS V14.01,2013-11-19 15:13:00,
2013-11-19 10:15:00,78.6,70.0,29.86,WNW,291,4.0,6.0,75,0.00,,SCT020,0.00,VWS V14.01,2013-11-19 15:15:00,
2013-11-19 10:17:00,78.8,69.8,29.86,North,359,2.0,2.0,74,0.00,,SCT020,0.00,VWS V14.01,2013-11-19 15:17:00,
2013-11-19 10:21:00,79.2,69.8,29.86,North,353,0.0,2.0,73,0.00,,SCT020,0.00,VWS V14.01,2013-11-19 15:21:00,
2013-11-19 10:22:00,79.4,70.0,29.86,NNW,339,1.0,4.0,73,0.00,,SCT020,0.00,VWS V14.01,2013-11-19 15:22:00,
2013-11-19 10:23:00,79.4,70.4,29.86,NNW,343,4.0,4.0,74,0.00,,SCT020,0.00,VWS V14.01,2013-11-19 15:23:00,
2013-11-19 10:24:00,79.6,70.2,29.86,North,359,0.0,4.0,73,0.00,,SCT020,0.00,VWS V14.01,2013-11-19 15:24:00,
2013-11-19 10:25:00,79.8,70.0,29.86,North,0,1.0,1.0,72,0.00,,SCT020,0.00,VWS V14.01,2013-11-19 15:25:00,
2013-11-19 10:27:00,79.9,70.1,29.86,North,0,2.0,6.0,72,0.00,,SCT020,0.00,VWS V14.01,2013-11-19 15:27:00,
2013-11-19 10:29:00,79.9,69.7,29.86,NE,35,2.0,7.0,71,0.00,,SCT020,0.00,VWS V14.01,2013-11-19 15:29:00,
2013-11-19 10:30:00,79.9,69.7,29.86,North,1,1.0,4.0,71,0.00,,SCT020,0.00,VWS V14.01,2013-11-19 15:30:00,
2013-11-19 10:31:00,80.1,69.9,29.86,North,3,4.0,4.0,71,0.00,,SCT020,0.00,VWS V14.01,2013-11-19 15:31:00,
2013-11-19 10:32:00,80.1,69.9,29.86,WNW,295,6.0,7.0,71,0.00,,SCT020,0.00,VWS V14.01,2013-11-19 15:32:00,
2013-11-19 10:33:00,80.1,69.9,29.86,NW,326,6.0,6.0,71,0.00,,SCT020,0.00,VWS V14.01,2013-11-19 15:33:00,
2013-11-19 10:36:00,80.3,70.5,29.86,NNW,333,2.0,4.0,72,0.00,,SCT020,0.00,VWS V14.01,2013-11-19 15:36:00,
2013-11-19 10:37:00,80.3,70.5,29.86,NW,323,4.0,6.0,72,0.00,,SCT020,0.00,VWS V14.01,2013-11-19 15:37:00,
2013-11-19 10:38:00,80.3,70.5,29.86,NW,322,4.0,8.0,72,0.00,,SCT020,0.00,VWS V14.01,2013-11-19 15:38:00,
2013-11-19 10:40:00,80.3,70.1,29.86,NNE,16,1.0,4.0,71,0.00,,SCT020,0.00,VWS V14.01,2013-11-19 15:40:00,
2013-11-19 10:41:00,80.5,70.2,29.86,NW,306,4.0,6.0,71,0.00,,SCT020,0.00,VWS V14.01,2013-11-19 15:41:00,
2013-11-19 10:42:00,80.5,69.8,29.86,NNW,328,8.0,8.0,70,0.00,,SCT020,0.00,VWS V14.01,2013-11-19 15:42:00,
2013-11-19 10:43:00,80.5,69.8,29.86,NW,315,1.0,8.0,70,0.00,,SCT020,0.00,VWS V14.01,2013-11-19 15:43:00,
2013-11-19 10:47:00,80.7,70.0,29.86,North,1,1.0,7.0,70,0.00,,SCT020,0.00,VWS V14.01,2013-11-19 15:47:00,
2013-11-19 10:51:00,81.1,70.4,29.86,WNW,294,4.0,6.0,70,0.00,,SCT020,0.00,VWS V14.01,2013-11-19 15:51:00,
2013-11-19 10:52:00,81.1,70.4,29.86,WNW,296,1.0,4.0,70,0.00,,SCT020,0.00,VWS V14.01,2013-11-19 15:52:00,
2013-11-19 10:53:00,81.2,70.1,29.86,WNW,295,2.0,6.0,69,0.00,,SCT020,0.00,VWS V14.01,2013-11-19 15:53:00,
2013-11-19 10:55:00,81.2,70.1,29.86,ENE,65,2.0,4.0,69,0.00,,SCT020,0.00,VWS V14.01,2013-11-19 15:55:00,
2013-11-19 10:56:00,81.2,70.1,29.86,NNW,335,2.0,6.0,69,0.00,,SCT020,0.00,VWS V14.01,2013-11-19 15:56:00,
2013-11-19 10:58:00,81.4,69.8,29.86,NNW,336,6.0,8.0,68,0.00,,SCT020,0.00,VWS V14.01,2013-11-19 15:58:00,
2013-11-19 11:01:00,81.6,70.0,29.86,NNE,23,2.0,4.0,68,0.00,,SCT020,0.00,VWS V14.01,2013-11-19 16:01:00,
2013-11-19 11:03:00,81.6,69.6,29.86,NE,41,4.0,7.0,67,0.00,,SCT020,0.00,VWS V14.01,2013-11-19 16:03:00,
2013-11-19 11:04:00,81.6,69.6,29.86,NE,41,6.0,6.0,67,0.00,,SCT020,0.00,VWS V14.01,2013-11-19 16:04:00,
2013-11-19 11:06:00,81.4,69.4,29.86,NNE,21,6.0,6.0,67,0.00,,SCT020,0.00,VWS V14.01,2013-11-19 16:06:00,
2013-11-19 11:10:00,81.6,70.0,29.86,NW,320,2.0,4.0,68,0.00,,SCT020,0.00,VWS V14.01,2013-11-19 16:10:00,
2013-11-19 11:12:00,81.6,70.0,29.86,NW,313,0.0,4.0,68,0.00,,SCT020,0.00,VWS V14.01,2013-11-19 16:12:00,
2013-11-19 11:13:00,81.6,70.0,29.86,NNW,342,6.0,6.0,68,0.00,,SCT020,0.00,VWS V14.01,2013-11-19 16:13:00,
2013-11-19 11:15:00,81.8,69.8,29.85,NNE,30,6.0,7.0,67,0.00,,SCT020,0.00,VWS V14.01,2013-11-19 16:15:00,
2013-11-19 11:18:00,81.8,70.2,29.85,NW,323,4.0,4.0,68,0.00,,SCT020,0.00,VWS V14.01,2013-11-19 16:18:00,
2013-11-19 11:20:00,82.0,70.0,29.85,North,349,2.0,4.0,67,0.00,,SCT020,0.00,VWS V14.01,2013-11-19 16:20:00,
2013-11-19 11:21:00,82.0,70.0,29.85,North,350,7.0,7.0,67,0.00,,SCT020,0.00,VWS V14.01,2013-11-19 16:21:00,
2013-11-19 11:23:00,82.2,70.2,29.85,North,0,6.0,6.0,67,0.00,,SCT020,0.00,VWS V14.01,2013-11-19 16:23:00,
2013-11-19 11:27:00,82.2,69.7,29.85,NW,325,4.0,4.0,66,0.00,,SCT020,0.00,VWS V14.01,2013-11-19 16:27:00,
2013-11-19 11:28:00,82.2,70.2,29.85,West,277,7.0,7.0,67,0.00,,SCT020,0.00,VWS V14.01,2013-11-19 16:28:00,
2013-11-19 11:29:00,82.2,69.7,29.85,West,263,7.0,8.0,66,0.00,,SCT020,0.00,VWS V14.01,2013-11-19 16:29:00,
2013-11-19 11:31:00,82.2,70.6,29.85,NW,315,7.0,8.0,68,0.00,,SCT020,0.00,VWS V14.01,2013-11-19 16:31:00,
2013-11-19 11:32:00,82.2,70.6,29.85,WNW,294,4.0,7.0,68,0.00,,SCT020,0.00,VWS V14.01,2013-11-19 16:32:00,
2013-11-19 11:33:00,82.2,70.2,29.85,NNW,344,1.0,4.0,67,0.00,,SCT020,0.00,VWS V14.01,2013-11-19 16:33:00,
2013-11-19 11:34:00,82.2,70.2,29.85,NW,320,4.0,4.0,67,0.00,,SCT020,0.00,VWS V14.01,2013-11-19 16:34:00,
2013-11-19 11:36:00,82.4,70.8,29.85,WNW,302,4.0,4.0,68,0.00,,SCT020,0.00,VWS V14.01,2013-11-19 16:36:00,
2013-11-19 11:39:00,82.4,70.8,29.85,West,278,6.0,7.0,68,0.00,,SCT020,0.00,VWS V14.01,2013-11-19 16:39:00,
2013-11-19 11:40:00,82.4,70.8,29.85,WNW,302,2.0,7.0,68,0.00,,SCT020,0.00,VWS V14.01,2013-11-19 16:40:00,
2013-11-19 11:44:00,82.2,71.0,29.85,WNW,285,4.0,7.0,69,0.00,,SCT020,0.00,VWS V14.01,2013-11-19 16:44:00,
2013-11-19 11:45:00,82.2,71.0,29.84,NW,306,2.0,7.0,69,0.00,,SCT020,0.00,VWS V14.01,2013-11-19 16:45:00,
2013-11-19 11:46:00,82.2,70.6,29.84,North,0,1.0,4.0,68,0.00,,SCT020,0.00,VWS V14.01,2013-11-19 16:46:00,
2013-11-19 11:48:00,82.2,69.7,29.84,NNE,17,1.0,6.0,66,0.00,,SCT020,0.00,VWS V14.01,2013-11-19 16:48:00,
2013-11-19 11:49:00,82.2,69.7,29.84,NW,318,1.0,6.0,66,0.00,,SCT020,0.00,VWS V14.01,2013-11-19 16:49:00,
2013-11-19 11:51:00,82.4,69.9,29.84,NNW,330,4.0,4.0,66,0.00,,SCT020,0.00,VWS V14.01,2013-11-19 16:51:00,
2013-11-19 11:52:00,82.4,69.5,29.84,NNW,332,2.0,4.0,65,0.00,,SCT020,0.00,VWS V14.01,2013-11-19 16:52:00,
2013-11-19 11:56:00,82.6,69.7,29.84,North,0,2.0,2.0,65,0.00,,SCT020,0.00,VWS V14.01,2013-11-19 16:56:00,
2013-11-19 11:57:00,82.6,69.7,29.84,North,352,2.0,6.0,65,0.00,,SCT020,0.00,VWS V14.01,2013-11-19 16:57:00,
2013-11-19 11:58:00,82.6,70.1,29.84,West,280,2.0,4.0,66,0.00,,SCT020,0.00,VWS V14.01,2013-11-19 16:58:00,
2013-11-19 12:00:00,82.6,70.1,29.83,West,280,0.0,1.0,66,0.00,,SCT020,0.00,VWS V14.01,2013-11-19 17:00:00,
2013-11-19 12:03:00,82.8,70.3,29.83,NNE,14,4.0,4.0,66,0.00,,SCT020,0.00,VWS V14.01,2013-11-19 17:03:00,
2013-11-19 12:04:00,82.8,70.3,29.83,NNE,20,1.0,4.0,66,0.00,,SCT020,0.00,VWS V14.01,2013-11-19 17:04:00,
2013-11-19 12:05:00,83.0,70.5,29.83,NE,41,2.0,4.0,66,0.00,,SCT020,0.00,VWS V14.01,2013-11-19 17:05:00,
2013-11-19 12:06:00,83.0,69.1,29.83,NNE,30,1.0,6.0,63,0.00,,SCT020,0.00,VWS V14.01,2013-11-19 17:06:00,
2013-11-19 12:08:00,83.2,69.8,29.83,NNE,30,4.0,4.0,64,0.00,,SCT020,0.00,VWS V14.01,2013-11-19 17:08:00,
2013-11-19 12:09:00,83.2,69.3,29.83,NNE,31,1.0,4.0,63,0.00,,SCT020,0.00,VWS V14.01,2013-11-19 17:09:00,
2013-11-19 12:12:00,83.2,69.8,29.83,NNE,24,1.0,2.0,64,0.00,,SCT020,0.00,VWS V14.01,2013-11-19 17:12:00,
2013-11-19 12:13:00,83.2,69.3,29.83,NNE,24,1.0,1.0,63,0.00,,SCT020,0.00,VWS V14.01,2013-11-19 17:13:00,
2013-11-19 12:14:00,83.4,69.5,29.83,WSW,241,1.0,4.0,63,0.00,,SCT020,0.00,VWS V14.01,2013-11-19 17:14:00,
2013-11-19 12:17:00,83.6,69.2,29.82,NW,306,2.0,6.0,62,0.00,,SCT020,0.00,VWS V14.01,2013-11-19 17:17:00,
2013-11-19 12:18:00,83.8,69.4,29.82,North,353,1.0,4.0,62,0.00,,SCT020,0.00,VWS V14.01,2013-11-19 17:18:00,
2013-11-19 12:19:00,83.8,69.4,29.82,North,353,2.0,2.0,62,0.00,,SCT020,0.00,VWS V14.01,2013-11-19 17:19:00,
2013-11-19 12:20:00,84.0,69.6,29.82,WNW,282,0.0,6.0,62,0.00,,SCT020,0.00,VWS V14.01,2013-11-19 17:20:00,
2013-11-19 12:21:00,84.0,69.6,29.82,WNW,294,2.0,4.0,62,0.00,,SCT020,0.00,VWS V14.01,2013-11-19 17:21:00,
2013-11-19 12:23:00,84.0,69.1,29.82,NW,315,4.0,4.0,61,0.00,,SCT020,0.00,VWS V14.01,2013-11-19 17:23:00,
2013-11-19 12:24:00,84.0,69.1,29.82,NW,325,1.0,6.0,61,0.00,,SCT020,0.00,VWS V14.01,2013-11-19 17:24:00,
2013-11-19 12:28:00,84.1,68.7,29.82,NE,52,2.0,4.0,60,0.00,,SCT020,0.00,VWS V14.01,2013-11-19 17:28:00,
2013-11-19 12:29:00,84.1,68.7,29.82,North,4,0.0,2.0,60,0.00,,SCT020,0.00,VWS V14.01,2013-11-19 17:29:00,
2013-11-19 12:30:00,84.3,68.9,29.81,NW,309,2.0,2.0,60,0.00,,SCT020,0.00,VWS V14.01,2013-11-19 17:30:00,
2013-11-19 12:34:00,84.3,68.4,29.81,NNE,25,1.0,7.0,59,0.00,,SCT020,0.00,VWS V14.01,2013-11-19 17:34:00,
2013-11-19 12:35:00,84.1,68.2,29.81,WNW,296,4.0,4.0,59,0.00,,SCT020,0.00,VWS V14.01,2013-11-19 17:35:00,
2013-11-19 12:36:00,84.1,68.2,29.81,West,281,2.0,4.0,59,0.00,,SCT020,0.00,VWS V14.01,2013-11-19 17:36:00,
2013-11-19 12:38:00,84.1,68.2,29.81,NW,313,2.0,2.0,59,0.00,,SCT020,0.00,VWS V14.01,2013-11-19 17:38:00,
2013-11-19 12:39:00,84.1,68.2,29.81,North,349,1.0,2.0,59,0.00,,SCT020,0.00,VWS V14.01,2013-11-19 17:39:00,
2013-11-19 12:42:00,84.1,68.2,29.81,West,264,7.0,7.0,59,0.00,,SCT020,0.00,VWS V14.01,2013-11-19 17:42:00,
2013-11-19 12:43:00,84.1,68.2,29.81,WSW,246,2.0,7.0,59,0.00,,SCT020,0.00,VWS V14.01,2013-11-19 17:43:00,
2013-11-19 12:44:00,84.0,69.1,29.81,West,260,4.0,8.0,61,0.00,,SCT020,0.00,VWS V14.01,2013-11-19 17:44:00,
2013-11-19 12:45:00,84.0,69.1,29.81,WSW,257,1.0,7.0,61,0.00,,SCT020,0.00,VWS V14.01,2013-11-19 17:45:00,
2013-11-19 12:48:00,84.1,69.2,29.81,NW,322,2.0,7.0,61,0.00,,SCT020,0.00,VWS V14.01,2013-11-19 17:48:00,
2013-11-19 12:49:00,84.3,67.9,29.81,WNW,294,2.0,6.0,58,0.00,,SCT020,0.00,VWS V14.01,2013-11-19 17:49:00,
2013-11-19 12:50:00,84.3,67.9,29.81,WNW,288,4.0,7.0,58,0.00,,SCT020,0.00,VWS V14.01,2013-11-19 17:50:00,
2013-11-19 12:54:00,84.5,67.6,29.81,NW,308,2.0,4.0,57,0.00,,SCT020,0.00,VWS V14.01,2013-11-19 17:54:00,
2013-11-19 12:58:00,84.7,68.8,29.81,NNW,332,4.0,9.0,59,0.00,,SCT020,0.00,VWS V14.01,2013-11-19 17:58:00,
2013-11-19 12:59:00,84.7,68.3,29.81,NNW,344,4.0,6.0,58,0.00,,SCT020,0.00,VWS V14.01,2013-11-19 17:59:00,
2013-11-19 13:01:00,84.9,68.0,29.80,NW,320,0.0,4.0,57,0.00,,SCT020,0.00,VWS V14.01,2013-11-19 18:01:00,
2013-11-19 13:03:00,84.9,67.5,29.80,NW,320,0.0,0.0,56,0.00,,SCT020,0.00,VWS V14.01,2013-11-19 18:03:00,
2013-11-19 13:05:00,84.9,68.0,29.80,NW,320,1.0,1.0,57,0.00,,SCT020,0.00,VWS V14.01,2013-11-19 18:05:00,
2013-11-19 13:07:00,85.1,68.2,29.80,North,0,1.0,2.0,57,0.00,,SCT020,0.00,VWS V14.01,2013-11-19 18:07:00,
2013-11-19 13:08:00,85.1,68.2,29.80,North,0,1.0,1.0,57,0.00,,SCT020,0.00,VWS V14.01,2013-11-19 18:08:00,
2013-11-19 13:09:00,85.1,68.2,29.80,NNE,24,0.0,4.0,57,0.00,,SCT020,0.00,VWS V14.01,2013-11-19 18:09:00,
2013-11-19 13:10:00,85.1,68.2,29.80,NW,308,4.0,4.0,57,0.00,,SCT020,0.00,VWS V14.01,2013-11-19 18:10:00,
2013-11-19 13:13:00,85.1,67.7,29.80,NNW,343,4.0,6.0,56,0.00,,SCT020,0.00,VWS V14.01,2013-11-19 18:13:00,
2013-11-19 13:14:00,85.1,68.2,29.80,NNE,14,4.0,7.0,57,0.00,,SCT020,0.00,VWS V14.01,2013-11-19 18:14:00,
2013-11-19 13:16:00,85.1,68.2,29.80,North,352,4.0,6.0,57,0.00,,SCT020,0.00,VWS V14.01,2013-11-19 18:16:00,
2013-11-19 13:18:00,85.3,68.3,29.80,NW,315,2.0,2.0,57,0.00,,SCT020,0.00,VWS V14.01,2013-11-19 18:18:00,
2013-11-19 13:19:00,85.3,68.9,29.80,West,272,4.0,4.0,58,0.00,,SCT020,0.00,VWS V14.01,2013-11-19 18:19:00,
2013-11-19 13:21:00,85.1,68.2,29.80,WNW,298,1.0,8.0,57,0.00,,SCT020,0.00,VWS V14.01,2013-11-19 18:21:00,
2013-11-19 13:22:00,84.9,68.0,29.80,West,280,2.0,4.0,57,0.00,,SCT020,0.00,VWS V14.01,2013-11-19 18:22:00,
2013-11-19 13:25:00,84.7,68.8,29.80,North,353,6.0,6.0,59,0.00,,SCT020,0.00,VWS V14.01,2013-11-19 18:25:00,
2013-11-19 13:28:00,84.7,68.3,29.80,WNW,295,1.0,6.0,58,0.00,,SCT020,0.00,VWS V14.01,2013-11-19 18:28:00,
2013-11-19 13:29:00,84.7,68.3,29.80,North,0,4.0,7.0,58,0.00,,SCT020,0.00,VWS V14.01,2013-11-19 18:29:00,
2013-11-19 13:33:00,84.5,68.6,29.79,North,359,0.0,1.0,59,0.00,,SCT020,0.00,VWS V14.01,2013-11-19 18:33:00,
2013-11-19 13:35:00,84.5,69.1,29.79,North,11,1.0,4.0,60,0.00,,SCT020,0.00,VWS V14.01,2013-11-19 18:35:00,
2013-11-19 13:36:00,84.5,69.1,29.79,NW,312,6.0,6.0,60,0.00,,SCT020,0.00,VWS V14.01,2013-11-19 18:36:00,
2013-11-19 13:38:00,84.5,68.1,29.79,North,352,1.0,8.0,58,0.00,,SCT020,0.00,VWS V14.01,2013-11-19 18:38:00,
2013-11-19 13:40:00,84.5,68.6,29.79,North,0,6.0,6.0,59,0.00,,SCT020,0.00,VWS V14.01,2013-11-19 18:40:00,
2013-11-19 13:42:00,84.5,68.6,29.79,NNW,346,2.0,4.0,59,0.00,,SCT020,0.00,VWS V14.01,2013-11-19 18:42:00,
2013-11-19 13:43:00,84.5,68.6,29.79,NNW,344,2.0,4.0,59,0.00,,SCT020,0.00,VWS V14.01,2013-11-19 18:43:00,
2013-11-19 13:45:00,84.5,69.1,29.79,North,354,0.0,2.0,60,0.00,,SCT020,0.00,VWS V14.01,2013-11-19 18:45:00,
2013-11-19 13:46:00,84.7,69.3,29.79,North,7,4.0,6.0,60,0.00,,SCT020,0.00,VWS V14.01,2013-11-19 18:46:00,
2013-11-19 13:48:00,84.7,69.3,29.79,WNW,284,6.0,6.0,60,0.00,,SCT020,0.00,VWS V14.01,2013-11-19 18:48:00,
2013-11-19 13:49:00,84.7,69.3,29.79,WNW,289,6.0,6.0,60,0.00,,SCT020,0.00,VWS V14.01,2013-11-19 18:49:00,
2013-11-19 13:52:00,84.7,68.8,29.79,NW,319,6.0,8.0,59,0.00,,SCT020,0.00,VWS V14.01,2013-11-19 18:52:00,
2013-11-19 13:53:00,84.7,68.8,29.79,NNW,335,4.0,7.0,59,0.00,,SCT020,0.00,VWS V14.01,2013-11-19 18:53:00,
2013-11-19 13:56:00,84.9,69.5,29.79,North,349,2.0,4.0,60,0.00,,SCT020,0.00,VWS V14.01,2013-11-19 18:56:00,
2013-11-19 13:57:00,85.1,69.2,29.79,NW,312,1.0,8.0,59,0.00,,SCT020,0.00,VWS V14.01,2013-11-19 18:57:00,
2013-11-19 14:00:00,84.9,69.0,29.78,NNW,336,7.0,7.0,59,0.00,,SCT020,0.00,VWS V14.01,2013-11-19 19:00:00,
2013-11-19 14:02:00,84.9,69.0,29.78,NNW,344,1.0,2.0,59,0.00,,SCT020,0.00,VWS V14.01,2013-11-19 19:02:00,
2013-11-19 14:04:00,84.7,68.8,29.78,NNW,337,2.0,4.0,59,0.00,,SCT020,0.00,VWS V14.01,2013-11-19 19:04:00,
2013-11-19 14:05:00,84.7,69.3,29.78,West,271,6.0,6.0,60,0.00,,SCT020,0.00,VWS V14.01,2013-11-19 19:05:00,
2013-11-19 14:07:00,84.7,68.8,29.78,NNW,343,1.0,4.0,59,0.00,,SCT020,0.00,VWS V14.01,2013-11-19 19:07:00,
2013-11-19 14:09:00,84.9,69.0,29.78,West,272,2.0,4.0,59,0.00,,SCT020,0.00,VWS V14.01,2013-11-19 19:09:00,
2013-11-19 14:10:00,84.9,69.0,29.78,WNW,289,2.0,4.0,59,0.00,,SCT020,0.00,VWS V14.01,2013-11-19 19:10:00,
2013-11-19 14:12:00,85.1,68.7,29.78,NW,309,8.0,8.0,58,0.00,,SCT020,0.00,VWS V14.01,2013-11-19 19:12:00,
2013-11-19 14:13:00,85.1,68.7,29.78,NNW,346,1.0,8.0,58,0.00,,SCT020,0.00,VWS V14.01,2013-11-19 19:13:00,
2013-11-19 14:15:00,85.3,68.9,29.78,NW,319,2.0,4.0,58,0.00,,SCT020,0.00,VWS V14.01,2013-11-19 19:15:00,
2013-11-19 14:19:00,85.1,68.7,29.78,North,0,4.0,4.0,58,0.00,,SCT020,0.00,VWS V14.01,2013-11-19 19:19:00,
2013-11-19 14:20:00,85.1,68.7,29.78,NW,323,2.0,6.0,58,0.00,,SCT020,0.00,VWS V14.01,2013-11-19 19:20:00,
2013-11-19 14:21:00,84.9,68.0,29.78,NNW,343,1.0,4.0,57,0.00,,SCT020,0.00,VWS V14.01,2013-11-19 19:21:00,
2013-11-19 14:25:00,84.7,68.3,29.78,WNW,292,2.0,4.0,58,0.00,,SCT020,0.00,VWS V14.01,2013-11-19 19:25:00,
2013-11-19 14:26:00,84.7,68.8,29.78,WNW,301,1.0,4.0,59,0.00,,SCT020,0.00,VWS V14.01,2013-11-19 19:26:00,
2013-11-19 14:29:00,84.9,68.5,29.78,North,359,1.0,6.0,58,0.00,,SCT020,0.00,VWS V14.01,2013-11-19 19:29:00,
2013-11-19 14:30:00,84.9,68.0,29.77,North,0,1.0,4.0,57,0.00,,SCT020,0.00,VWS V14.01,2013-11-19 19:30:00,
2013-11-19 14:32:00,85.1,68.2,29.77,North,4,0.0,4.0,57,0.00,,SCT020,0.00,VWS V14.01,2013-11-19 19:32:00,
2013-11-19 14:33:00,85.1,68.2,29.77,North,6,1.0,4.0,57,0.00,,SCT020,0.00,VWS V14.01,2013-11-19 19:33:00,
2013-11-19 14:34:00,85.3,68.3,29.77,North,356,2.0,4.0,57,0.00,,SCT020,0.00,VWS V14.01,2013-11-19 19:34:00,
2013-11-19 14:38:00,85.7,68.2,29.77,NNE,24,6.0,6.0,56,0.00,,SCT020,0.00,VWS V14.01,2013-11-19 19:38:00,
2013-11-19 14:40:00,85.9,68.4,29.77,ENE,58,0.0,1.0,56,0.00,,SCT020,0.00,VWS V14.01,2013-11-19 19:40:00,
2013-11-19 14:44:00,85.9,67.9,29.77,North,3,1.0,6.0,55,0.00,,SCT020,0.00,VWS V14.01,2013-11-19 19:44:00,
2013-11-19 14:45:00,85.9,68.4,29.77,NNE,32,4.0,7.0,56,0.00,,SCT020,0.00,VWS V14.01,2013-11-19 19:45:00,
2013-11-19 14:46:00,85.9,68.4,29.77,NE,48,1.0,6.0,56,0.00,,SCT020,0.00,VWS V14.01,2013-11-19 19:46:00,
2013-11-19 14:47:00,85.9,68.4,29.77,North,0,2.0,4.0,56,0.00,,SCT020,0.00,VWS V14.01,2013-11-19 19:47:00,
2013-11-19 14:49:00,85.9,68.4,29.77,NNE,28,4.0,4.0,56,0.00,,SCT020,0.00,VWS V14.01,2013-11-19 19:49:00,
2013-11-19 14:51:00,85.7,68.2,29.77,ENE,78,2.0,6.0,56,0.00,,SCT020,0.00,VWS V14.01,2013-11-19 19:51:00,
2013-11-19 14:53:00,85.7,68.7,29.77,ENE,75,1.0,1.0,57,0.00,,SCT020,0.00,VWS V14.01,2013-11-19 19:53:00,
2013-11-19 14:55:00,85.7,68.7,29.77,ENE,75,2.0,2.0,57,0.00,,SCT020,0.00,VWS V14.01,2013-11-19 19:55:00,
2013-11-19 14:56:00,85.7,68.7,29.77,NE,56,7.0,7.0,57,0.00,,SCT020,0.00,VWS V14.01,2013-11-19 19:56:00,
2013-11-19 14:57:00,85.7,68.7,29.77,NE,38,4.0,7.0,57,0.00,,SCT020,0.00,VWS V14.01,2013-11-19 19:57:00,
2013-11-19 14:58:00,85.5,68.5,29.77,NE,42,1.0,4.0,57,0.00,,SCT020,0.00,VWS V14.01,2013-11-19 19:58:00,
2013-11-19 15:02:00,85.5,68.5,29.77,NNE,13,2.0,2.0,57,0.00,,SCT020,0.00,VWS V14.01,2013-11-19 20:02:00,
2013-11-19 15:04:00,85.5,68.0,29.77,North,352,0.0,4.0,56,0.00,,SCT020,0.00,VWS V14.01,2013-11-19 20:04:00,
2013-11-19 15:05:00,85.5,68.0,29.77,North,6,1.0,2.0,56,0.00,,SCT020,0.00,VWS V14.01,2013-11-19 20:05:00,
2013-11-19 15:09:00,85.7,67.7,29.77,North,10,1.0,4.0,55,0.00,,SCT020,0.00,VWS V14.01,2013-11-19 20:09:00,
2013-11-19 15:10:00,85.9,67.9,29.77,North,10,1.0,2.0,55,0.00,,SCT020,0.00,VWS V14.01,2013-11-19 20:10:00,
2013-11-19 15:14:00,86.1,68.1,29.77,NE,38,4.0,6.0,55,0.00,,SCT020,0.00,VWS V14.01,2013-11-19 20:14:00,
2013-11-19 15:15:00,86.1,67.5,29.77,NE,55,2.0,7.0,54,0.00,,SCT020,0.00,VWS V14.01,2013-11-19 20:15:00,
2013-11-19 15:17:00,86.1,67.5,29.77,NE,34,1.0,2.0,54,0.00,,SCT020,0.00,VWS V14.01,2013-11-19 20:17:00,
2013-11-19 15:19:00,86.1,67.5,29.77,NE,34,1.0,2.0,54,0.00,,SCT020,0.00,VWS V14.01,2013-11-19 20:19:00,
2013-11-19 15:21:00,85.9,67.3,29.77,NW,305,4.0,4.0,54,0.00,,SCT020,0.00,VWS V14.01,2013-11-19 20:21:00,
2013-11-19 15:22:00,85.9,67.3,29.77,North,0,6.0,6.0,54,0.00,,SCT020,0.00,VWS V14.01,2013-11-19 20:22:00,
2013-11-19 15:23:00,85.9,67.3,29.77,ESE,106,4.0,6.0,54,0.00,,SCT020,0.00,VWS V14.01,2013-11-19 20:23:00,
2013-11-19 15:24:00,85.7,67.2,29.77,ENE,64,2.0,7.0,54,0.00,,SCT020,0.00,VWS V14.01,2013-11-19 20:24:00,
2013-11-19 15:27:00,85.3,66.8,29.77,North,0,0.0,2.0,54,0.00,,SCT020,0.00,VWS V14.01,2013-11-19 20:27:00,
2013-11-19 15:28:00,85.1,66.6,29.77,NNE,16,2.0,4.0,54,0.00,,SCT020,0.00,VWS V14.01,2013-11-19 20:28:00,
2013-11-19 15:29:00,85.1,66.6,29.77,NNE,16,1.0,2.0,54,0.00,,SCT020,0.00,VWS V14.01,2013-11-19 20:29:00,
2013-11-19 15:34:00,84.9,66.9,29.77,ENE,69,4.0,4.0,55,0.00,,SCT020,0.00,VWS V14.01,2013-11-19 20:34:00,
2013-11-19 15:35:00,84.9,66.9,29.77,ENE,66,4.0,6.0,55,0.00,,SCT020,0.00,VWS V14.01,2013-11-19 20:35:00,
2013-11-19 15:36:00,84.7,66.8,29.77,ENE,61,1.0,7.0,55,0.00,,SCT020,0.00,VWS V14.01,2013-11-19 20:36:00,
2013-11-19 15:40:00,83.8,69.4,29.77,ENE,59,1.0,6.0,62,0.00,,SCT020,0.00,VWS V14.01,2013-11-19 20:40:00,
2013-11-19 15:41:00,83.6,69.7,29.77,East,89,2.0,4.0,63,0.00,,SCT020,0.00,VWS V14.01,2013-11-19 20:41:00,
2013-11-19 15:43:00,83.2,69.8,29.77,East,83,1.0,4.0,64,0.00,,SCT020,0.00,VWS V14.01,2013-11-19 20:43:00,
2013-11-19 15:45:00,82.8,69.8,29.77,East,83,2.0,2.0,65,0.00,,SCT020,0.00,VWS V14.01,2013-11-19 20:45:00,
2013-11-19 15:46:00,82.6,69.7,29.77,East,85,4.0,4.0,65,0.00,,SCT020,0.00,VWS V14.01,2013-11-19 20:46:00,
2013-11-19 15:47:00,82.4,69.9,29.77,East,85,0.0,4.0,66,0.00,,SCT020,0.00,VWS V14.01,2013-11-19 20:47:00,
2013-11-19 15:48:00,82.4,69.9,29.77,East,85,0.0,2.0,66,0.00,,SCT020,0.00,VWS V14.01,2013-11-19 20:48:00,
2013-11-19 15:49:00,82.2,70.2,29.77,East,85,2.0,2.0,67,0.00,,SCT020,0.00,VWS V14.01,2013-11-19 20:49:00,
2013-11-19 15:53:00,81.8,69.8,29.77,ENE,64,1.0,2.0,67,0.00,,SCT020,0.00,VWS V14.01,2013-11-19 20:53:00,
2013-11-19 15:54:00,81.8,69.8,29.77,ENE,64,1.0,1.0,67,0.00,,SCT020,0.00,VWS V14.01,2013-11-19 20:54:00,
2013-11-19 15:55:00,81.8,70.2,29.77,ENE,64,0.0,4.0,68,0.00,,SCT020,0.00,VWS V14.01,2013-11-19 20:55:00,
2013-11-19 15:58:00,81.6,70.4,29.77,ESE,112,2.0,2.0,69,0.00,,SCT020,0.00,VWS V14.01,2013-11-19 20:58:00,
2013-11-19 15:59:00,81.4,70.3,29.77,ESE,102,1.0,6.0,69,0.00,,SCT020,0.00,VWS V14.01,2013-11-19 20:59:00,
2013-11-19 16:01:00,81.2,70.1,29.78,ESE,109,2.0,7.0,69,0.00,,SCT020,0.00,VWS V14.01,2013-11-19 21:01:00,
2013-11-19 16:02:00,81.2,70.1,29.78,East,96,1.0,6.0,69,0.00,,SCT020,0.00,VWS V14.01,2013-11-19 21:02:00,
2013-11-19 16:06:00,80.9,70.2,29.78,East,85,4.0,4.0,70,0.00,,SCT020,0.00,VWS V14.01,2013-11-19 21:06:00,
2013-11-19 16:07:00,80.9,70.2,29.78,ENE,75,2.0,4.0,70,0.00,,SCT020,0.00,VWS V14.01,2013-11-19 21:07:00,
2013-11-19 16:09:00,80.9,70.2,29.78,NNE,27,7.0,7.0,70,0.00,,SCT020,0.00,VWS V14.01,2013-11-19 21:09:00,
2013-11-19 16:10:00,80.9,70.2,29.78,ENE,75,2.0,8.0,70,0.00,,SCT020,0.00,VWS V14.01,2013-11-19 21:10:00,
2013-11-19 16:13:00,80.7,69.6,29.78,NE,51,6.0,8.0,69,0.00,,SCT020,0.00,VWS V14.01,2013-11-19 21:13:00,
2013-11-19 16:14:00,80.5,69.0,29.78,East,83,1.0,7.0,68,0.00,,SCT020,0.00,VWS V14.01,2013-11-19 21:14:00,
2013-11-19 16:17:00,80.5,69.4,29.78,NE,41,2.0,7.0,69,0.00,,SCT020,0.00,VWS V14.01,2013-11-19 21:17:00,
2013-11-19 16:18:00,80.5,69.0,29.78,NE,56,2.0,4.0,68,0.00,,SCT020,0.00,VWS V14.01,2013-11-19 21:18:00,
2013-11-19 16:20:00,80.3,68.8,29.78,ENE,61,2.0,4.0,68,0.00,,SCT020,0.00,VWS V14.01,2013-11-19 21:20:00,
2013-11-19 16:22:00,80.3,68.8,29.78,ENE,61,0.0,2.0,68,0.00,,SCT020,0.00,VWS V14.01,2013-11-19 21:22:00,
2013-11-19 16:23:00,80.3,68.8,29.78,ENE,59,2.0,2.0,68,0.00,,SCT020,0.00,VWS V14.01,2013-11-19 21:23:00,
2013-11-19 16:24:00,80.3,68.8,29.78,NE,44,0.0,6.0,68,0.00,,SCT020,0.00,VWS V14.01,2013-11-19 21:24:00,
2013-11-19 16:27:00,80.3,68.8,29.78,NE,45,1.0,2.0,68,0.00,,SCT020,0.00,VWS V14.01,2013-11-19 21:27:00,
2013-11-19 16:28:00,80.3,68.8,29.78,East,86,4.0,4.0,68,0.00,,SCT020,0.00,VWS V14.01,2013-11-19 21:28:00,
2013-11-19 16:29:00,80.3,68.8,29.78,ENE,65,2.0,4.0,68,0.00,,SCT020,0.00,VWS V14.01,2013-11-19 21:29:00,
2013-11-19 16:31:00,80.1,69.0,29.79,East,82,1.0,6.0,69,0.00,,SCT020,0.00,VWS V14.01,2013-11-19 21:31:00,
2013-11-19 16:32:00,80.1,69.0,29.79,NE,56,1.0,6.0,69,0.00,,SCT020,0.00,VWS V14.01,2013-11-19 21:32:00,
2013-11-19 16:34:00,80.1,69.0,29.79,NE,48,6.0,6.0,69,0.00,,SCT020,0.00,VWS V14.01,2013-11-19 21:34:00,
2013-11-19 16:36:00,80.1,69.0,29.79,ENE,64,6.0,7.0,69,0.00,,SCT020,0.00,VWS V14.01,2013-11-19 21:36:00,
2013-11-19 16:37:00,80.1,69.0,29.79,ENE,71,0.0,6.0,69,0.00,,SCT020,0.00,VWS V14.01,2013-11-19 21:37:00,
2013-11-19 16:39:00,80.1,69.0,29.79,SE,130,2.0,2.0,69,0.00,,SCT020,0.00,VWS V14.01,2013-11-19 21:39:00,
2013-11-19 16:40:00,80.1,69.0,29.79,ENE,69,2.0,4.0,69,0.00,,SCT020,0.00,VWS V14.01,2013-11-19 21:40:00,
2013-11-19 16:42:00,80.1,69.0,29.79,ENE,64,4.0,4.0,69,0.00,,SCT020,0.00,VWS V14.01,2013-11-19 21:42:00,
2013-11-19 16:45:00,79.9,68.4,29.79,NE,49,4.0,6.0,68,0.00,,SCT020,0.00,VWS V14.01,2013-11-19 21:45:00,
2013-11-19 16:46:00,79.8,68.3,29.79,NE,45,7.0,7.0,68,0.00,,SCT020,0.00,VWS V14.01,2013-11-19 21:46:00,
2013-11-19 16:48:00,79.6,68.5,29.79,ENE,58,7.0,7.0,69,0.00,,SCT020,0.00,VWS V14.01,2013-11-19 21:48:00,
2013-11-19 16:50:00,79.6,69.0,29.79,ENE,76,2.0,6.0,70,0.00,,SCT020,0.00,VWS V14.01,2013-11-19 21:50:00,
2013-11-19 16:51:00,79.4,68.8,29.79,NE,48,2.0,6.0,70,0.00,,SCT020,0.00,VWS V14.01,2013-11-19 21:51:00,
2013-11-19 16:53:00,79.4,68.8,29.79,ENE,71,4.0,6.0,70,0.00,,SCT020,0.00,VWS V14.01,2013-11-19 21:53:00,
2013-11-19 16:54:00,79.4,69.2,29.79,ENE,78,4.0,6.0,71,0.00,,SCT020,0.00,VWS V14.01,2013-11-19 21:54:00,
2013-11-19 16:56:00,79.2,69.4,29.79,ENE,71,1.0,7.0,72,0.00,,SCT020,0.00,VWS V14.01,2013-11-19 21:56:00,
2013-11-19 16:57:00,79.2,69.4,29.79,NE,40,4.0,9.0,72,0.00,,SCT020,0.00,VWS V14.01,2013-11-19 21:57:00,
2013-11-19 16:58:00,79.0,69.2,29.79,NE,54,4.0,7.0,72,0.00,,SCT020,0.00,VWS V14.01,2013-11-19 21:58:00,
2013-11-19 17:01:00,78.6,69.2,29.80,NE,41,4.0,6.0,73,0.00,,SCT020,0.00,VWS V14.01,2013-11-19 22:01:00,
2013-11-19 17:02:00,78.6,69.2,29.80,NNW,347,6.0,6.0,73,0.00,,SCT020,0.00,VWS V14.01,2013-11-19 22:02:00,
2013-11-19 17:03:00,78.5,69.5,29.80,NNE,32,2.0,7.0,74,0.00,,SCT020,0.00,VWS V14.01,2013-11-19 22:03:00,
2013-11-19 17:05:00,78.3,69.3,29.80,ENE,59,4.0,6.0,74,0.00,,SCT020,0.00,VWS V14.01,2013-11-19 22:05:00,
2013-11-19 17:07:00,78.1,69.5,29.80,NE,49,2.0,8.0,75,0.00,,SCT020,0.00,VWS V14.01,2013-11-19 22:07:00,
2013-11-19 17:08:00,78.1,69.5,29.80,NE,49,4.0,4.0,75,0.00,,SCT020,0.00,VWS V14.01,2013-11-19 22:08:00,
2013-11-19 17:09:00,77.9,69.3,29.80,North,359,8.0,8.0,75,0.00,,SCT020,0.00,VWS V14.01,2013-11-19 22:09:00,
2013-11-19 17:13:00,77.7,69.2,29.80,NW,305,4.0,8.0,75,0.00,,SCT020,0.00,VWS V14.01,2013-11-19 22:13:00,
2013-11-19 17:14:00,77.7,68.8,29.80,SE,126,2.0,6.0,74,0.00,,SCT020,0.00,VWS V14.01,2013-11-19 22:14:00,
2013-11-19 17:15:00,77.6,68.7,29.80,ENE,64,4.0,4.0,74,0.00,,SCT020,0.00,VWS V14.01,2013-11-19 22:15:00,
2013-11-19 17:16:00,77.6,68.7,29.80,NNE,32,2.0,7.0,74,0.00,,SCT020,0.00,VWS V14.01,2013-11-19 22:16:00,
2013-11-19 17:17:00,77.6,68.7,29.80,ENE,68,2.0,6.0,74,0.00,,SCT020,0.00,VWS V14.01,2013-11-19 22:17:00,
2013-11-19 17:18:00,77.6,68.7,29.80,NE,41,1.0,6.0,74,0.00,,SCT020,0.00,VWS V14.01,2013-11-19 22:18:00,
2013-11-19 17:20:00,77.6,68.7,29.80,NE,37,6.0,6.0,74,0.00,,SCT020,0.00,VWS V14.01,2013-11-19 22:20:00,
2013-11-19 17:23:00,77.4,68.1,29.80,NE,48,1.0,4.0,73,0.00,,SCT020,0.00,VWS V14.01,2013-11-19 22:23:00,
2013-11-19 17:25:00,77.4,68.1,29.80,NE,38,2.0,4.0,73,0.00,,SCT020,0.00,VWS V14.01,2013-11-19 22:25:00,
2013-11-19 17:27:00,77.4,68.1,29.80,NE,52,6.0,6.0,73,0.00,,SCT020,0.00,VWS V14.01,2013-11-19 22:27:00,
2013-11-19 17:30:00,77.2,67.9,29.81,NE,42,2.0,7.0,73,0.00,,SCT020,0.00,VWS V14.01,2013-11-19 22:30:00,
2013-11-19 17:31:00,77.2,67.9,29.81,NE,45,2.0,4.0,73,0.00,,SCT020,0.00,VWS V14.01,2013-11-19 22:31:00,
2013-11-19 17:32:00,77.0,67.7,29.81,NE,47,4.0,7.0,73,0.00,,SCT020,0.00,VWS V14.01,2013-11-19 22:32:00,
2013-11-19 17:33:00,77.0,67.3,29.81,North,0,4.0,4.0,72,0.00,,SCT020,0.00,VWS V14.01,2013-11-19 22:33:00,
2013-11-19 17:35:00,77.0,67.3,29.81,NE,51,6.0,6.0,72,0.00,,SCT020,0.00,VWS V14.01,2013-11-19 22:35:00,
2013-11-19 17:36:00,77.0,67.3,29.81,NE,38,2.0,6.0,72,0.00,,SCT020,0.00,VWS V14.01,2013-11-19 22:36:00,
2013-11-19 17:38:00,77.0,67.3,29.81,NE,56,2.0,4.0,72,0.00,,SCT020,0.00,VWS V14.01,2013-11-19 22:38:00,
2013-11-19 17:39:00,77.0,67.3,29.81,ENE,64,1.0,4.0,72,0.00,,SCT020,0.00,VWS V14.01,2013-11-19 22:39:00,
2013-11-19 17:40:00,77.0,67.3,29.81,NE,47,1.0,4.0,72,0.00,,SCT020,0.00,VWS V14.01,2013-11-19 22:40:00,
2013-11-19 17:41:00,77.0,67.3,29.81,NE,47,2.0,2.0,72,0.00,,SCT020,0.00,VWS V14.01,2013-11-19 22:41:00,
2013-11-19 17:42:00,76.8,67.1,29.81,NE,45,0.0,2.0,72,0.00,,SCT020,0.00,VWS V14.01,2013-11-19 22:42:00,
2013-11-19 17:43:00,76.8,67.5,29.81,ENE,76,1.0,2.0,73,0.00,,SCT020,0.00,VWS V14.01,2013-11-19 22:43:00,
2013-11-19 17:45:00,76.8,67.5,29.82,ENE,66,1.0,4.0,73,0.00,,SCT020,0.00,VWS V14.01,2013-11-19 22:45:00,
2013-11-19 17:46:00,76.8,67.1,29.82,NE,40,1.0,4.0,72,0.00,,SCT020,0.00,VWS V14.01,2013-11-19 22:46:00,
2013-11-19 17:47:00,76.8,67.1,29.82,NNE,28,1.0,4.0,72,0.00,,SCT020,0.00,VWS V14.01,2013-11-19 22:47:00,
2013-11-19 17:48:00,76.8,67.1,29.82,NE,38,1.0,4.0,72,0.00,,SCT020,0.00,VWS V14.01,2013-11-19 22:48:00,
2013-11-19 17:51:00,76.8,67.1,29.82,ENE,62,6.0,8.0,72,0.00,,SCT020,0.00,VWS V14.01,2013-11-19 22:51:00,
2013-11-19 17:52:00,76.8,67.1,29.82,NE,54,4.0,6.0,72,0.00,,SCT020,0.00,VWS V14.01,2013-11-19 22:52:00,
2013-11-19 17:53:00,76.7,67.4,29.82,ENE,58,4.0,9.0,73,0.00,,SCT020,0.00,VWS V14.01,2013-11-19 22:53:00,
2013-11-19 17:54:00,76.7,67.4,29.82,NNE,18,2.0,4.0,73,0.00,,SCT020,0.00,VWS V14.01,2013-11-19 22:54:00,
2013-11-19 17:56:00,76.7,67.4,29.82,ENE,59,1.0,2.0,73,0.00,,SCT020,0.00,VWS V14.01,2013-11-19 22:56:00,
2013-11-19 17:59:00,76.5,67.6,29.82,NE,55,6.0,6.0,74,0.00,,SCT020,0.00,VWS V14.01,2013-11-19 22:59:00,
2013-11-19 18:00:00,76.5,67.6,29.82,NE,44,1.0,6.0,74,0.00,,SCT020,0.00,VWS V14.01,2013-11-19 23:00:00,
2013-11-19 18:01:00,76.5,67.6,29.82,NNE,27,2.0,4.0,74,0.00,,SCT020,0.00,VWS V14.01,2013-11-19 23:01:00,
2013-11-19 18:03:00,76.5,67.6,29.82,ENE,61,1.0,8.0,74,0.00,,SCT020,0.00,VWS V14.01,2013-11-19 23:03:00,
2013-11-19 18:06:00,76.3,67.8,29.82,East,88,2.0,7.0,75,0.00,,SCT020,0.00,VWS V14.01,2013-11-19 23:06:00,
2013-11-19 18:07:00,76.3,67.8,29.82,NE,37,1.0,2.0,75,0.00,,SCT020,0.00,VWS V14.01,2013-11-19 23:07:00,
2013-11-19 18:11:00,76.1,68.0,29.82,ENE,62,2.0,4.0,76,0.00,,SCT020,0.00,VWS V14.01,2013-11-19 23:11:00,
2013-11-19 18:12:00,76.1,68.0,29.82,ENE,64,2.0,2.0,76,0.00,,SCT020,0.00,VWS V14.01,2013-11-19 23:12:00,
2013-11-19 18:13:00,76.1,68.0,29.82,ENE,64,1.0,2.0,76,0.00,,SCT020,0.00,VWS V14.01,2013-11-19 23:13:00,
2013-11-19 18:15:00,76.1,68.0,29.81,ENE,64,1.0,1.0,76,0.00,,SCT020,0.00,VWS V14.01,2013-11-19 23:15:00,
2013-11-19 18:16:00,76.1,68.0,29.81,ENE,69,1.0,6.0,76,0.00,,SCT020,0.00,VWS V14.01,2013-11-19 23:16:00,
2013-11-19 18:17:00,76.1,68.0,29.81,ENE,65,2.0,4.0,76,0.00,,SCT020,0.00,VWS V14.01,2013-11-19 23:17:00,
2013-11-19 18:19:00,76.0,67.9,29.81,NNE,21,2.0,4.0,76,0.00,,SCT020,0.00,VWS V14.01,2013-11-19 23:19:00,
2013-11-19 18:22:00,76.0,67.9,29.81,ENE,76,0.0,1.0,76,0.00,,SCT020,0.00,VWS V14.01,2013-11-19 23:22:00,
2013-11-19 18:23:00,76.0,67.9,29.81,ENE,76,0.0,1.0,76,0.00,,SCT020,0.00,VWS V14.01,2013-11-19 23:23:00,
2013-11-19 18:24:00,76.0,67.9,29.81,East,79,1.0,2.0,76,0.00,,SCT020,0.00,VWS V14.01,2013-11-19 23:24:00,
2013-11-19 18:25:00,76.0,67.9,29.81,NE,41,1.0,4.0,76,0.00,,SCT020,0.00,VWS V14.01,2013-11-19 23:25:00,
2013-11-19 18:28:00,76.0,67.9,29.81,NE,37,1.0,1.0,76,0.00,,SCT020,0.00,VWS V14.01,2013-11-19 23:28:00,
2013-11-19 18:31:00,76.0,67.9,29.82,NE,52,1.0,2.0,76,0.00,,SCT020,0.00,VWS V14.01,2013-11-19 23:31:00,
2013-11-19 18:33:00,76.0,67.9,29.82,NE,52,0.0,1.0,76,0.00,,SCT020,0.00,VWS V14.01,2013-11-19 23:33:00,
2013-11-19 18:34:00,76.0,68.3,29.82,NE,52,0.0,0.0,77,0.00,,SCT020,0.00,VWS V14.01,2013-11-19 23:34:00,
2013-11-19 18:35:00,76.0,68.3,29.82,NE,52,1.0,1.0,77,0.00,,SCT020,0.00,VWS V14.01,2013-11-19 23:35:00,
2013-11-19 18:36:00,76.0,68.3,29.82,NE,51,1.0,2.0,77,0.00,,SCT020,0.00,VWS V14.01,2013-11-19 23:36:00,
2013-11-19 18:38:00,76.0,68.3,29.82,NE,51,0.0,2.0,77,0.00,,SCT020,0.00,VWS V14.01,2013-11-19 23:38:00,
2013-11-19 18:40:00,76.0,68.3,29.82,NE,52,1.0,2.0,77,0.00,,SCT020,0.00,VWS V14.01,2013-11-19 23:40:00,
2013-11-19 18:41:00,76.0,68.3,29.82,NE,51,1.0,2.0,77,0.00,,SCT020,0.00,VWS V14.01,2013-11-19 23:41:00,
2013-11-19 18:43:00,76.0,68.3,29.82,ENE,61,1.0,2.0,77,0.00,,SCT020,0.00,VWS V14.01,2013-11-19 23:43:00,
2013-11-19 18:48:00,76.0,68.3,29.82,NE,35,2.0,2.0,77,0.00,,SCT020,0.00,VWS V14.01,2013-11-19 23:48:00,
2013-11-19 18:49:00,76.0,68.3,29.82,NE,35,0.0,2.0,77,0.00,,SCT020,0.00,VWS V14.01,2013-11-19 23:49:00,
2013-11-19 18:52:00,76.0,68.3,29.82,NE,55,2.0,6.0,77,0.00,,SCT020,0.00,VWS V14.01,2013-11-19 23:52:00,
2013-11-19 18:54:00,76.0,67.9,29.82,NE,54,1.0,2.0,76,0.00,,SCT020,0.00,VWS V14.01,2013-11-19 23:54:00,
2013-11-19 18:55:00,76.0,67.9,29.82,NE,54,1.0,2.0,76,0.00,,SCT020,0.00,VWS V14.01,2013-11-19 23:55:00,
2013-11-19 18:56:00,76.0,67.9,29.82,NE,54,0.0,1.0,76,0.00,,SCT020,0.00,VWS V14.01,2013-11-19 23:56:00,
2013-11-19 19:00:00,76.0,67.9,29.83,NE,52,0.0,4.0,76,0.00,,SCT020,0.00,VWS V14.01,2013-11-20 00:00:00,
2013-11-19 19:01:00,76.0,67.9,29.83,NE,52,0.0,1.0,76,0.00,,SCT020,0.00,VWS V14.01,2013-11-20 00:01:00,
2013-11-19 19:02:00,76.0,67.9,29.83,NE,52,0.0,1.0,76,0.00,,SCT020,0.00,VWS V14.01,2013-11-20 00:02:00,
2013-11-19 19:05:00,76.0,67.9,29.83,NE,48,1.0,1.0,76,0.00,,SCT020,0.00,VWS V14.01,2013-11-20 00:05:00,
2013-11-19 19:06:00,76.0,67.9,29.83,NE,48,0.0,1.0,76,0.00,,SCT020,0.00,VWS V14.01,2013-11-20 00:06:00,
2013-11-19 19:08:00,76.0,67.9,29.83,NE,48,0.0,1.0,76,0.00,,SCT020,0.00,VWS V14.01,2013-11-20 00:08:00,
2013-11-19 19:10:00,75.8,67.7,29.83,NE,48,0.0,0.0,76,0.00,,SCT020,0.00,VWS V14.01,2013-11-20 00:10:00,
2013-11-19 19:11:00,75.8,67.7,29.83,NE,48,0.0,1.0,76,0.00,,SCT020,0.00,VWS V14.01,2013-11-20 00:11:00,
2013-11-19 19:13:00,75.8,67.7,29.83,NE,48,0.0,1.0,76,0.00,,SCT020,0.00,VWS V14.01,2013-11-20 00:13:00,
2013-11-19 19:14:00,75.8,68.1,29.83,NE,48,0.0,1.0,77,0.00,,SCT020,0.00,VWS V14.01,2013-11-20 00:14:00,
2013-11-19 19:16:00,75.8,68.1,29.84,NE,48,1.0,1.0,77,0.00,,SCT020,0.00,VWS V14.01,2013-11-20 00:16:00,
2013-11-19 19:17:00,75.8,68.1,29.84,NE,48,0.0,1.0,77,0.00,,SCT020,0.00,VWS V14.01,2013-11-20 00:17:00,
2013-11-19 19:18:00,75.8,68.1,29.84,NE,48,0.0,1.0,77,0.00,,SCT020,0.00,VWS V14.01,2013-11-20 00:18:00,
2013-11-19 19:20:00,75.8,68.1,29.84,NE,49,2.0,4.0,77,0.00,,SCT020,0.00,VWS V14.01,2013-11-20 00:20:00,
2013-11-19 19:23:00,75.8,68.1,29.84,NE,49,1.0,2.0,77,0.00,,SCT020,0.00,VWS V14.01,2013-11-20 00:23:00,
2013-11-19 19:24:00,75.8,68.1,29.84,NE,49,0.0,1.0,77,0.00,,SCT020,0.00,VWS V14.01,2013-11-20 00:24:00,
2013-11-19 19:25:00,75.8,68.1,29.84,NE,49,0.0,0.0,77,0.00,,SCT020,0.00,VWS V14.01,2013-11-20 00:25:00,
2013-11-19 19:27:00,75.8,68.5,29.84,NE,49,0.0,2.0,78,0.00,,SCT020,0.00,VWS V14.01,2013-11-20 00:27:00,
2013-11-19 19:30:00,75.8,68.5,29.84,NE,49,1.0,1.0,78,0.00,,SCT020,0.00,VWS V14.01,2013-11-20 00:30:00,
2013-11-19 19:32:00,75.8,68.5,29.84,NE,49,0.0,1.0,78,0.00,,SCT020,0.00,VWS V14.01,2013-11-20 00:32:00,
2013-11-19 19:33:00,75.8,68.5,29.84,NE,49,0.0,0.0,78,0.00,,SCT020,0.00,VWS V14.01,2013-11-20 00:33:00,
2013-11-19 19:34:00,75.8,68.5,29.84,NE,49,1.0,2.0,78,0.00,,SCT020,0.00,VWS V14.01,2013-11-20 00:34:00,
2013-11-19 19:37:00,75.6,68.3,29.84,ENE,58,1.0,2.0,78,0.00,,SCT020,0.00,VWS V14.01,2013-11-20 00:37:00,
2013-11-19 19:38:00,75.6,68.3,29.84,ENE,58,0.0,1.0,78,0.00,,SCT020,0.00,VWS V14.01,2013-11-20 00:38:00,
2013-11-19 19:40:00,75.6,68.3,29.84,ENE,58,1.0,1.0,78,0.00,,SCT020,0.00,VWS V14.01,2013-11-20 00:40:00,
2013-11-19 19:41:00,75.6,68.3,29.84,ENE,58,1.0,2.0,78,0.00,,SCT020,0.00,VWS V14.01,2013-11-20 00:41:00,
2013-11-19 19:42:00,75.6,68.3,29.84,ENE,58,0.0,1.0,78,0.00,,SCT020,0.00,VWS V14.01,2013-11-20 00:42:00,
2013-11-19 19:44:00,75.6,68.3,29.84,ENE,58,0.0,1.0,78,0.00,,SCT020,0.00,VWS V14.01,2013-11-20 00:44:00,
2013-11-19 19:45:00,75.6,68.3,29.84,ENE,58,0.0,0.0,78,0.00,,SCT020,0.00,VWS V14.01,2013-11-20 00:45:00,
2013-11-19 19:46:00,75.6,68.3,29.84,ENE,58,0.0,0.0,78,0.00,,SCT020,0.00,VWS V14.01,2013-11-20 00:46:00,
2013-11-19 19:47:00,75.6,68.3,29.84,ENE,58,0.0,1.0,78,0.00,,SCT020,0.00,VWS V14.01,2013-11-20 00:47:00,
2013-11-19 19:50:00,75.6,68.6,29.84,NE,45,2.0,2.0,79,0.00,,SCT020,0.00,VWS V14.01,2013-11-20 00:50:00,
2013-11-19 19:52:00,75.6,68.6,29.84,NE,45,1.0,1.0,79,0.00,,SCT020,0.00,VWS V14.01,2013-11-20 00:52:00,
2013-11-19 19:53:00,75.6,68.6,29.84,NE,45,2.0,2.0,79,0.00,,SCT020,0.00,VWS V14.01,2013-11-20 00:53:00,
2013-11-19 19:56:00,75.6,68.6,29.84,NE,45,0.0,1.0,79,0.00,,SCT020,0.00,VWS V14.01,2013-11-20 00:56:00,
2013-11-19 19:58:00,75.6,68.6,29.84,NE,47,1.0,2.0,79,0.00,,SCT020,0.00,VWS V14.01,2013-11-20 00:58:00,
2013-11-19 20:01:00,75.4,68.4,29.85,NE,47,0.0,2.0,79,0.00,,SCT020,0.00,VWS V14.01,2013-11-20 01:01:00,
2013-11-19 20:02:00,75.4,68.4,29.85,NE,47,0.0,1.0,79,0.00,,SCT020,0.00,VWS V14.01,2013-11-20 01:02:00,
2013-11-19 20:03:00,75.4,68.4,29.85,NE,47,1.0,2.0,79,0.00,,SCT020,0.00,VWS V14.01,2013-11-20 01:03:00,
2013-11-19 20:05:00,75.4,68.4,29.85,NE,47,0.0,0.0,79,0.00,,SCT020,0.00,VWS V14.01,2013-11-20 01:05:00,
2013-11-19 20:08:00,75.4,68.4,29.85,NE,47,0.0,1.0,79,0.00,,SCT020,0.00,VWS V14.01,2013-11-20 01:08:00,
2013-11-19 20:09:00,75.4,68.4,29.85,NE,47,1.0,1.0,79,0.00,,SCT020,0.00,VWS V14.01,2013-11-20 01:09:00,
2013-11-19 20:10:00,75.4,68.4,29.85,NE,48,0.0,2.0,79,0.00,,SCT020,0.00,VWS V14.01,2013-11-20 01:10:00,
2013-11-19 20:11:00,75.4,68.4,29.85,NE,48,0.0,0.0,79,0.00,,SCT020,0.00,VWS V14.01,2013-11-20 01:11:00,
2013-11-19 20:12:00,75.4,68.4,29.85,NE,47,0.0,1.0,79,0.00,,SCT020,0.00,VWS V14.01,2013-11-20 01:12:00,
2013-11-19 20:14:00,75.4,68.4,29.85,NE,47,0.0,0.0,79,0.00,,SCT020,0.00,VWS V14.01,2013-11-20 01:14:00,
2013-11-19 20:16:00,75.3,68.3,29.85,NE,47,1.0,1.0,79,0.00,,SCT020,0.00,VWS V14.01,2013-11-20 01:16:00,
2013-11-19 20:17:00,75.3,68.3,29.85,NE,47,0.0,1.0,79,0.00,,SCT020,0.00,VWS V14.01,2013-11-20 01:17:00,
2013-11-19 20:18:00,75.3,68.3,29.85,NE,47,0.0,0.0,79,0.00,,SCT020,0.00,VWS V14.01,2013-11-20 01:18:00,
2013-11-19 20:20:00,75.3,68.3,29.85,NE,47,0.0,0.0,79,0.00,,SCT020,0.00,VWS V14.01,2013-11-20 01:20:00,
2013-11-19 20:22:00,75.3,68.3,29.85,NE,47,0.0,0.0,79,0.00,,SCT020,0.00,VWS V14.01,2013-11-20 01:22:00,
2013-11-19 20:23:00,75.3,68.3,29.85,NE,47,0.0,0.0,79,0.00,,SCT020,0.00,VWS V14.01,2013-11-20 01:23:00,
2013-11-19 20:24:00,75.3,68.7,29.85,NE,47,0.0,0.0,80,0.00,,SCT020,0.00,VWS V14.01,2013-11-20 01:24:00,
2013-11-19 20:26:00,75.1,68.5,29.85,NE,47,0.0,0.0,80,0.00,,SCT020,0.00,VWS V14.01,2013-11-20 01:26:00,
2013-11-19 20:27:00,75.1,68.5,29.85,NE,47,0.0,0.0,80,0.00,,SCT020,0.00,VWS V14.01,2013-11-20 01:27:00,
2013-11-19 20:30:00,75.1,68.5,29.85,NE,47,0.0,0.0,80,0.00,,SCT020,0.00,VWS V14.01,2013-11-20 01:30:00,
2013-11-19 20:31:00,75.1,68.5,29.85,NE,47,0.0,0.0,80,0.00,,SCT020,0.00,VWS V14.01,2013-11-20 01:31:00,
2013-11-19 20:32:00,75.1,68.5,29.85,NE,47,0.0,0.0,80,0.00,,SCT020,0.00,VWS V14.01,2013-11-20 01:32:00,
2013-11-19 20:33:00,75.1,68.5,29.85,NE,47,0.0,0.0,80,0.00,,SCT020,0.00,VWS V14.01,2013-11-20 01:33:00,
2013-11-19 20:36:00,75.1,68.5,29.85,NE,47,0.0,0.0,80,0.00,,SCT020,0.00,VWS V14.01,2013-11-20 01:36:00,
2013-11-19 20:38:00,75.1,68.5,29.85,NE,47,0.0,0.0,80,0.00,,SCT020,0.00,VWS V14.01,2013-11-20 01:38:00,
2013-11-19 20:39:00,75.1,68.9,29.85,NE,47,0.0,0.0,81,0.00,,SCT020,0.00,VWS V14.01,2013-11-20 01:39:00,
2013-11-19 20:40:00,75.1,68.9,29.85,NE,47,0.0,0.0,81,0.00,,SCT020,0.00,VWS V14.01,2013-11-20 01:40:00,
2013-11-19 20:42:00,75.1,68.5,29.85,NE,48,0.0,0.0,80,0.00,,SCT020,0.00,VWS V14.01,2013-11-20 01:42:00,
2013-11-19 20:43:00,75.1,68.5,29.85,NE,47,0.0,0.0,80,0.00,,SCT020,0.00,VWS V14.01,2013-11-20 01:43:00,
2013-11-19 20:44:00,75.1,68.5,29.85,NE,47,0.0,0.0,80,0.00,,SCT020,0.00,VWS V14.01,2013-11-20 01:44:00,
2013-11-19 20:47:00,74.9,68.3,29.86,NE,47,0.0,0.0,80,0.00,,SCT020,0.00,VWS V14.01,2013-11-20 01:47:00,
2013-11-19 20:48:00,74.9,68.3,29.86,NE,47,0.0,0.0,80,0.00,,SCT020,0.00,VWS V14.01,2013-11-20 01:48:00,
2013-11-19 20:49:00,74.9,68.3,29.86,NE,47,0.0,0.0,80,0.00,,SCT020,0.00,VWS V14.01,2013-11-20 01:49:00,
2013-11-19 20:51:00,74.9,68.3,29.86,NE,47,0.0,0.0,80,0.00,,SCT020,0.00,VWS V14.01,2013-11-20 01:51:00,
2013-11-19 20:54:00,74.9,68.3,29.86,NE,47,0.0,0.0,80,0.00,,SCT020,0.00,VWS V14.01,2013-11-20 01:54:00,
2013-11-19 20:55:00,74.9,68.7,29.86,NE,47,0.0,0.0,81,0.00,,SCT020,0.00,VWS V14.01,2013-11-20 01:55:00,
2013-11-19 20:57:00,74.7,68.5,29.86,NE,47,0.0,0.0,81,0.00,,SCT020,0.00,VWS V14.01,2013-11-20 01:57:00,
2013-11-19 20:58:00,74.7,68.5,29.86,NE,47,0.0,0.0,81,0.00,,SCT020,0.00,VWS V14.01,2013-11-20 01:58:00,
2013-11-19 21:00:00,74.7,68.5,29.86,NE,47,0.0,0.0,81,0.00,,SCT020,0.00,VWS V14.01,2013-11-20 02:00:00,
2013-11-19 21:03:00,74.7,68.5,29.86,NE,47,0.0,0.0,81,0.00,,SCT020,0.00,VWS V14.01,2013-11-20 02:03:00,
2013-11-19 21:06:00,74.7,68.8,29.86,NE,47,0.0,0.0,82,0.00,,SCT020,0.00,VWS V14.01,2013-11-20 02:06:00,
2013-11-19 21:07:00,74.6,68.8,29.86,NE,47,0.0,0.0,82,0.00,,SCT020,0.00,VWS V14.01,2013-11-20 02:07:00,
2013-11-19 21:08:00,74.6,68.8,29.86,NE,47,0.0,0.0,82,0.00,,SCT020,0.00,VWS V14.01,2013-11-20 02:08:00,
2013-11-19 21:12:00,74.6,68.8,29.86,NE,47,0.0,0.0,82,0.00,,SCT020,0.00,VWS V14.01,2013-11-20 02:12:00,
2013-11-19 21:13:00,74.6,68.8,29.86,NE,47,0.0,0.0,82,0.00,,SCT020,0.00,VWS V14.01,2013-11-20 02:13:00,
2013-11-19 21:15:00,74.6,68.8,29.86,NE,47,0.0,0.0,82,0.00,,SCT020,0.00,VWS V14.01,2013-11-20 02:15:00,
2013-11-19 21:16:00,74.6,68.8,29.86,NE,47,0.0,0.0,82,0.00,,SCT020,0.00,VWS V14.01,2013-11-20 02:16:00,
2013-11-19 21:20:00,74.4,68.6,29.86,NE,47,0.0,0.0,82,0.00,,SCT020,0.00,VWS V14.01,2013-11-20 02:20:00,
2013-11-19 21:21:00,74.4,68.6,29.86,NE,47,0.0,0.0,82,0.00,,SCT020,0.00,VWS V14.01,2013-11-20 02:21:00,
2013-11-19 21:22:00,74.4,68.6,29.86,NE,47,0.0,0.0,82,0.00,,SCT020,0.00,VWS V14.01,2013-11-20 02:22:00,
2013-11-19 21:26:00,74.4,68.6,29.86,NE,47,0.0,0.0,82,0.00,,SCT020,0.00,VWS V14.01,2013-11-20 02:26:00,
2013-11-19 21:27:00,74.4,68.6,29.86,NE,47,0.0,0.0,82,0.00,,SCT020,0.00,VWS V14.01,2013-11-20 02:27:00,
2013-11-19 21:30:00,74.4,68.6,29.86,NE,47,0.0,1.0,82,0.00,,SCT020,0.00,VWS V14.01,2013-11-20 02:30:00,
2013-11-19 21:32:00,74.4,68.9,29.86,NE,47,0.0,1.0,83,0.00,,SCT020,0.00,VWS V14.01,2013-11-20 02:32:00,
2013-11-19 21:33:00,74.4,68.6,29.86,NE,47,0.0,0.0,82,0.00,,SCT020,0.00,VWS V14.01,2013-11-20 02:33:00,
2013-11-19 21:36:00,74.4,68.6,29.86,NE,47,0.0,0.0,82,0.00,,SCT020,0.00,VWS V14.01,2013-11-20 02:36:00,
2013-11-19 21:37:00,74.4,68.6,29.86,NE,47,0.0,1.0,82,0.00,,SCT020,0.00,VWS V14.01,2013-11-20 02:37:00,
2013-11-19 21:39:00,74.4,68.6,29.86,NE,47,0.0,0.0,82,0.00,,SCT020,0.00,VWS V14.01,2013-11-20 02:39:00,
2013-11-19 21:40:00,74.4,68.6,29.86,NE,47,0.0,0.0,82,0.00,,SCT020,0.00,VWS V14.01,2013-11-20 02:40:00,
2013-11-19 21:43:00,74.4,68.6,29.86,NE,47,0.0,0.0,82,0.00,,SCT020,0.00,VWS V14.01,2013-11-20 02:43:00,
2013-11-19 21:44:00,74.4,68.6,29.86,NE,47,0.0,1.0,82,0.00,,SCT020,0.00,VWS V14.01,2013-11-20 02:44:00,
2013-11-19 21:45:00,74.4,68.6,29.86,NE,47,0.0,1.0,82,0.00,,SCT020,0.00,VWS V14.01,2013-11-20 02:45:00,
2013-11-19 21:47:00,74.4,68.6,29.86,NE,45,0.0,2.0,82,0.00,,SCT020,0.00,VWS V14.01,2013-11-20 02:47:00,
2013-11-19 21:50:00,74.4,68.6,29.86,NE,45,0.0,0.0,82,0.00,,SCT020,0.00,VWS V14.01,2013-11-20 02:50:00,
2013-11-19 21:51:00,74.4,68.6,29.86,NE,45,0.0,0.0,82,0.00,,SCT020,0.00,VWS V14.01,2013-11-20 02:51:00,
2013-11-19 21:53:00,74.4,68.6,29.86,NE,45,0.0,0.0,82,0.00,,SCT020,0.00,VWS V14.01,2013-11-20 02:53:00,
2013-11-19 21:58:00,74.4,68.9,29.86,NE,45,0.0,0.0,83,0.00,,SCT020,0.00,VWS V14.01,2013-11-20 02:58:00,
2013-11-19 21:59:00,74.4,68.9,29.86,NE,45,0.0,1.0,83,0.00,,SCT020,0.00,VWS V14.01,2013-11-20 02:59:00,
2013-11-19 22:02:00,74.4,68.9,29.87,NE,45,1.0,1.0,83,0.00,,SCT020,0.00,VWS V14.01,2013-11-20 03:02:00,
2013-11-19 22:06:00,74.4,68.9,29.87,NE,45,0.0,0.0,83,0.00,,SCT020,0.00,VWS V14.01,2013-11-20 03:06:00,
2013-11-19 22:07:00,74.4,68.9,29.87,NE,45,0.0,0.0,83,0.00,,SCT020,0.00,VWS V14.01,2013-11-20 03:07:00,
2013-11-19 22:08:00,74.4,68.9,29.87,NE,45,1.0,1.0,83,0.00,,SCT020,0.00,VWS V14.01,2013-11-20 03:08:00,
2013-11-19 22:09:00,74.4,68.9,29.87,NE,45,0.0,1.0,83,0.00,,SCT020,0.00,VWS V14.01,2013-11-20 03:09:00,
2013-11-19 22:11:00,74.4,68.9,29.87,NE,45,0.0,0.0,83,0.00,,SCT020,0.00,VWS V14.01,2013-11-20 03:11:00,
2013-11-19 22:12:00,74.4,68.9,29.87,NE,45,0.0,0.0,83,0.00,,SCT020,0.00,VWS V14.01,2013-11-20 03:12:00,
2013-11-19 22:15:00,74.4,68.9,29.87,NE,45,0.0,0.0,83,0.00,,SCT020,0.00,VWS V14.01,2013-11-20 03:15:00,
2013-11-19 22:17:00,74.4,68.9,29.87,NE,45,0.0,0.0,83,0.00,,SCT020,0.00,VWS V14.01,2013-11-20 03:17:00,
2013-11-19 22:18:00,74.4,68.9,29.87,NE,45,0.0,1.0,83,0.00,,SCT020,0.00,VWS V14.01,2013-11-20 03:18:00,
2013-11-19 22:21:00,74.4,68.9,29.87,NE,45,1.0,1.0,83,0.00,,SCT020,0.00,VWS V14.01,2013-11-20 03:21:00,
2013-11-19 22:23:00,74.4,68.9,29.87,NE,45,0.0,1.0,83,0.00,,SCT020,0.00,VWS V14.01,2013-11-20 03:23:00,
2013-11-19 22:25:00,74.4,69.3,29.87,NE,45,0.0,0.0,84,0.00,,SCT020,0.00,VWS V14.01,2013-11-20 03:25:00,
2013-11-19 22:26:00,74.2,69.1,29.87,NE,45,0.0,0.0,84,0.00,,SCT020,0.00,VWS V14.01,2013-11-20 03:26:00,
2013-11-19 22:29:00,74.4,69.3,29.87,NE,45,0.0,0.0,84,0.00,,SCT020,0.00,VWS V14.01,2013-11-20 03:29:00,
2013-11-19 22:30:00,74.4,69.3,29.87,NE,45,0.0,1.0,84,0.00,,SCT020,0.00,VWS V14.01,2013-11-20 03:30:00,
2013-11-19 22:32:00,74.4,69.3,29.87,NE,45,0.0,0.0,84,0.00,,SCT020,0.00,VWS V14.01,2013-11-20 03:32:00,
2013-11-19 22:33:00,74.4,69.3,29.87,NE,45,0.0,1.0,84,0.00,,SCT020,0.00,VWS V14.01,2013-11-20 03:33:00,
2013-11-19 22:34:00,74.4,69.3,29.87,NE,45,1.0,1.0,84,0.00,,SCT020,0.00,VWS V14.01,2013-11-20 03:34:00,
2013-11-19 22:35:00,74.4,69.3,29.87,NE,45,0.0,1.0,84,0.00,,SCT020,0.00,VWS V14.01,2013-11-20 03:35:00,
2013-11-19 22:38:00,74.4,69.6,29.87,NE,45,1.0,1.0,85,0.00,,SCT020,0.00,VWS V14.01,2013-11-20 03:38:00,
2013-11-19 22:39:00,74.4,69.6,29.87,NE,45,1.0,1.0,85,0.00,,SCT020,0.00,VWS V14.01,2013-11-20 03:39:00,
2013-11-19 22:41:00,74.4,69.6,29.87,NE,45,0.0,1.0,85,0.00,,SCT020,0.00,VWS V14.01,2013-11-20 03:41:00,
2013-11-19 22:44:00,74.4,69.6,29.87,NE,45,0.0,1.0,85,0.00,,SCT020,0.00,VWS V14.01,2013-11-20 03:44:00,
2013-11-19 22:45:00,74.4,69.6,29.87,NE,45,0.0,1.0,85,0.00,,SCT020,0.00,VWS V14.01,2013-11-20 03:45:00,
2013-11-19 22:46:00,74.4,69.6,29.87,NE,45,0.0,0.0,85,0.00,,SCT020,0.00,VWS V14.01,2013-11-20 03:46:00,
2013-11-19 22:48:00,74.4,69.6,29.87,NE,45,1.0,1.0,85,0.00,,SCT020,0.00,VWS V14.01,2013-11-20 03:48:00,
2013-11-19 22:49:00,74.4,69.6,29.87,NW,322,2.0,4.0,85,0.00,,SCT020,0.00,VWS V14.01,2013-11-20 03:49:00,
2013-11-19 22:52:00,74.4,69.6,29.87,NW,322,1.0,1.0,85,0.00,,SCT020,0.00,VWS V14.01,2013-11-20 03:52:00,
2013-11-19 22:55:00,74.4,69.9,29.87,NW,322,1.0,2.0,86,0.00,,SCT020,0.00,VWS V14.01,2013-11-20 03:55:00,
2013-11-19 22:56:00,74.4,69.9,29.87,NW,322,0.0,2.0,86,0.00,,SCT020,0.00,VWS V14.01,2013-11-20 03:56:00,
2013-11-19 22:57:00,74.4,69.9,29.87,NW,322,0.0,0.0,86,0.00,,SCT020,0.00,VWS V14.01,2013-11-20 03:57:00,
2013-11-19 22:59:00,74.4,69.9,29.87,NW,322,0.0,1.0,86,0.00,,SCT020,0.00,VWS V14.01,2013-11-20 03:59:00,
2013-11-19 23:00:00,74.4,69.9,29.86,NW,322,0.0,1.0,86,0.00,,SCT020,0.00,VWS V14.01,2013-11-20 04:00:00,
2013-11-19 23:05:00,74.4,69.9,29.86,NW,322,0.0,1.0,86,0.00,,SCT020,0.00,VWS V14.01,2013-11-20 04:05:00,
2013-11-19 23:06:00,74.4,69.9,29.86,NW,322,4.0,4.0,86,0.00,,SCT020,0.00,VWS V14.01,2013-11-20 04:06:00,
2013-11-19 23:07:00,74.4,69.9,29.86,NW,322,1.0,4.0,86,0.00,,SCT020,0.00,VWS V14.01,2013-11-20 04:07:00,
2013-11-19 23:11:00,74.2,69.8,29.86,WNW,296,4.0,4.0,86,0.00,,SCT020,0.00,VWS V14.01,2013-11-20 04:11:00,
2013-11-19 23:12:00,74.2,69.8,29.86,WNW,296,1.0,4.0,86,0.00,,SCT020,0.00,VWS V14.01,2013-11-20 04:12:00,
2013-11-19 23:13:00,74.2,69.8,29.86,WNW,296,1.0,1.0,86,0.00,,SCT020,0.00,VWS V14.01,2013-11-20 04:13:00,
2013-11-19 23:14:00,74.2,69.8,29.86,WNW,296,1.0,1.0,86,0.00,,SCT020,0.00,VWS V14.01,2013-11-20 04:14:00,
2013-11-19 23:17:00,74.2,70.1,29.86,West,277,1.0,4.0,87,0.00,,SCT020,0.00,VWS V14.01,2013-11-20 04:17:00,
2013-11-19 23:19:00,74.2,70.1,29.86,West,277,0.0,2.0,87,0.00,,SCT020,0.00,VWS V14.01,2013-11-20 04:19:00,
2013-11-19 23:20:00,74.2,70.1,29.86,West,277,0.0,1.0,87,0.00,,SCT020,0.00,VWS V14.01,2013-11-20 04:20:00,
2013-11-19 23:21:00,74.0,69.9,29.86,West,277,1.0,1.0,87,0.00,,SCT020,0.00,VWS V14.01,2013-11-20 04:21:00,
2013-11-19 23:25:00,74.0,69.9,29.86,West,277,0.0,0.0,87,0.00,,SCT020,0.00,VWS V14.01,2013-11-20 04:25:00,
2013-11-19 23:26:00,74.0,69.9,29.86,West,278,1.0,1.0,87,0.00,,SCT020,0.00,VWS V14.01,2013-11-20 04:26:00,
2013-11-19 23:27:00,74.0,69.9,29.86,West,278,0.0,1.0,87,0.00,,SCT020,0.00,VWS V14.01,2013-11-20 04:27:00,
2013-11-19 23:29:00,74.0,69.9,29.86,West,278,0.0,1.0,87,0.00,,SCT020,0.00,VWS V14.01,2013-11-20 04:29:00,
2013-11-19 23:30:00,74.0,69.9,29.86,West,278,1.0,1.0,87,0.00,,SCT020,0.00,VWS V14.01,2013-11-20 04:30:00,
2013-11-19 23:32:00,74.0,69.9,29.86,West,278,0.0,0.0,87,0.00,,SCT020,0.00,VWS V14.01,2013-11-20 04:32:00,
2013-11-19 23:34:00,74.0,69.9,29.86,West,278,0.0,0.0,87,0.00,,SCT020,0.00,VWS V14.01,2013-11-20 04:34:00,
2013-11-19 23:38:00,74.0,69.9,29.86,NW,306,0.0,1.0,87,0.00,,SCT020,0.00,VWS V14.01,2013-11-20 04:38:00,
2013-11-19 23:39:00,74.0,69.9,29.86,NW,306,0.0,0.0,87,0.00,,SCT020,0.00,VWS V14.01,2013-11-20 04:39:00,
2013-11-19 23:40:00,74.0,69.9,29.86,NW,306,0.0,0.0,87,0.00,,SCT020,0.00,VWS V14.01,2013-11-20 04:40:00,
2013-11-19 23:44:00,73.9,69.8,29.86,NW,306,0.0,1.0,87,0.00,,SCT020,0.00,VWS V14.01,2013-11-20 04:44:00,
2013-11-19 23:46:00,73.9,69.8,29.86,NW,306,0.0,0.0,87,0.00,,SCT020,0.00,VWS V14.01,2013-11-20 04:46:00,
2013-11-19 23:48:00,73.9,69.8,29.86,NW,306,1.0,1.0,87,0.00,,SCT020,0.00,VWS V14.01,2013-11-20 04:48:00,
2013-11-19 23:50:00,73.9,69.8,29.86,NW,306,0.0,1.0,87,0.00,,SCT020,0.00,VWS V14.01,2013-11-20 04:50:00,
2013-11-19 23:53:00,73.9,69.8,29.86,NW,306,0.0,0.0,87,0.00,,SCT020,0.00,VWS V14.01,2013-11-20 04:53:00,
2013-11-19 23:54:00,73.9,69.8,29.86,NW,306,0.0,0.0,87,0.00,,SCT020,0.00,VWS V14.01,2013-11-20 04:54:00,
2013-11-19 23:55:00,73.9,69.8,29.86,NW,306,0.0,1.0,87,0.00,,SCT020,0.00,VWS V14.01,2013-11-20 04:55:00,
2013-11-19 23:59:00,73.9,69.8,29.86,NW,306,0.0,0.0,87,0.00,,SCT020,0.00,VWS V14.01,2013-11-20 04:59:00,